PEQUAWKET POND DAM: From 10/10/2019 00:00 to 12/11/2019 00:00

Date LAKE ELEVATION [FT] PRECIPITATION INCREMENT [IN] PRECIPITATION DAILY TOTAL [IN] AIR TEMPERATURE [F] RESERVOIR RELEASE [CFS]
12/09/2019 11:00 -- -- -- -- 39.0
12/09/2019 10:00 455.27 0.00 -- 37.6 39.0
12/09/2019 09:00 455.27 0.00 -- 37.2 39.0
12/09/2019 08:00 455.27 0.00 -- 36.1 39.5
12/09/2019 07:00 455.27 0.00 -- 35.7 38.8
12/09/2019 06:00 455.27 0.00 -- 35.7 39.0
12/09/2019 05:00 455.27 0.00 -- 34.9 39.0
12/09/2019 04:00 455.27 0.00 -- 33.4 39.0
12/09/2019 03:00 455.26 0.00 -- 33.4 39.0
12/09/2019 02:00 455.27 0.00 -- 32.4 39.5
12/09/2019 01:00 455.27 0.00 -- 31.6 39.5
12/09/2019 00:00 455.26 0.00 -- 30.6 39.8
12/08/2019 23:00 455.28 0.00 -- 29.8 40.0
12/08/2019 22:00 455.27 0.00 -- 29.3 39.8
12/08/2019 21:00 455.27 0.00 -- 29.3 39.3
12/08/2019 20:00 455.27 0.00 -- 28.8 39.5
12/08/2019 19:00 455.27 0.00 -- 29.4 40.0
12/08/2019 18:00 455.27 0.00 -- 29.6 40.0
12/08/2019 17:00 455.28 0.00 -- 29.9 40.0
12/08/2019 16:00 455.28 0.00 -- 30.7 40.0
12/08/2019 15:00 455.27 0.00 -- 32.6 39.8
12/08/2019 14:00 455.27 0.00 -- 34.1 39.5
12/08/2019 13:00 455.28 0.00 -- 30.1 39.5
12/08/2019 12:00 455.27 0.00 -- 32.4 39.3
12/08/2019 11:00 455.27 0.00 -- 28.8 39.0
12/08/2019 10:00 455.26 0.00 -- 17.8 39.0
12/08/2019 09:00 455.26 0.00 -- 12.6 38.8
12/08/2019 08:00 455.27 0.00 -- 6.1 39.0
12/08/2019 07:00 455.27 0.00 -- 6.0 39.0
12/08/2019 06:00 455.27 0.00 -- 7.5 39.3
12/08/2019 05:00 455.27 0.00 -- 9.1 39.8
12/08/2019 04:00 455.28 0.00 -- 10.7 40.0
12/08/2019 03:00 455.28 0.00 -- 13.4 40.0
12/08/2019 02:00 455.28 0.00 -- 18.1 41.0
12/08/2019 01:00 455.29 0.00 -- 18.7 40.8
12/08/2019 00:00 455.29 0.00 0.00 16.5 41.0
12/07/2019 23:00 455.29 0.00 -- 16.3 41.3
12/07/2019 22:00 455.29 0.00 -- 12.8 41.3
12/07/2019 21:00 455.29 0.00 -- 13.4 41.3
12/07/2019 20:00 455.29 0.00 -- 15.2 41.5
12/07/2019 19:00 455.29 0.00 -- 18.1 41.8
12/07/2019 18:00 455.29 0.00 -- 20.8 41.8
12/07/2019 17:00 455.29 0.00 -- 22.7 42.0
12/07/2019 16:00 455.30 0.00 -- 25.8 42.5
12/07/2019 15:00 455.30 0.00 -- 27.5 42.3
12/07/2019 14:00 455.31 0.00 -- 28.6 42.5
12/07/2019 13:00 455.31 0.00 -- 29.7 43.0
12/07/2019 12:00 455.31 0.00 -- 28.4 43.3
12/07/2019 11:00 455.31 0.00 -- 27.7 42.8
12/07/2019 10:00 455.30 0.00 -- 26.7 42.8
12/07/2019 09:00 455.30 0.00 -- 24.9 43.0
12/07/2019 08:00 455.31 0.00 -- 21.6 43.3
12/07/2019 07:00 455.31 0.00 -- 21.8 43.5
12/07/2019 06:00 455.31 0.00 -- 20.6 43.5
12/07/2019 05:00 455.31 0.00 -- 22.5 44.0
12/07/2019 04:00 455.31 0.00 -- 23.2 44.0
12/07/2019 03:00 455.33 0.00 -- 24.6 44.5
12/07/2019 02:00 455.31 0.00 -- 23.2 44.0
12/07/2019 01:00 455.31 0.00 -- 24.8 43.8
12/07/2019 00:00 455.32 0.00 0.00 25.6 44.0
12/06/2019 23:00 455.32 0.00 -- 23.7 44.3
12/06/2019 22:00 455.32 0.00 -- 24.8 43.8
12/06/2019 21:00 455.32 0.00 -- 27.7 44.3
12/06/2019 20:00 455.32 0.00 -- 28.0 44.3
12/06/2019 19:00 455.31 0.00 -- 28.0 44.3
12/06/2019 18:00 455.32 0.00 -- 28.6 44.0
12/06/2019 17:00 455.32 0.00 -- 29.1 44.3
12/06/2019 16:00 455.32 0.00 -- 29.9 45.0
12/06/2019 15:00 455.32 0.00 -- 32.1 44.5
12/06/2019 14:00 455.32 0.00 -- 33.7 44.5
12/06/2019 13:00 455.32 0.00 -- 34.8 44.5
12/06/2019 12:00 455.32 0.00 -- 33.1 44.8
12/06/2019 11:00 455.32 0.00 -- 32.0 44.5
12/06/2019 10:00 455.32 0.00 -- 28.8 45.0
12/06/2019 09:00 455.32 0.00 -- 27.1 45.0
12/06/2019 08:00 455.32 0.00 -- 25.3 45.3
12/06/2019 07:00 455.33 0.00 -- 24.6 46.0
12/06/2019 06:00 455.34 0.00 -- 25.7 46.0
12/06/2019 05:00 455.33 0.00 -- 25.3 46.5
12/06/2019 04:00 455.35 0.00 -- 25.9 46.8
12/06/2019 03:00 455.33 0.00 -- 26.8 47.0
12/06/2019 02:00 455.34 0.00 -- 26.7 46.5
12/06/2019 01:00 455.34 0.00 -- 26.0 47.0
12/06/2019 00:00 455.35 0.00 0.00 26.3 47.3
12/05/2019 23:00 455.34 0.00 -- 28.0 47.0
12/05/2019 22:00 455.34 0.00 -- 29.1 47.5
12/05/2019 21:00 455.34 0.00 -- 30.5 47.3
12/05/2019 20:00 455.34 0.00 -- 31.9 46.8
12/05/2019 19:00 455.34 0.00 -- 32.3 47.0
12/05/2019 18:00 455.34 0.00 -- 34.1 47.5
12/05/2019 17:00 455.35 0.00 -- 33.8 47.3
12/05/2019 16:00 455.34 0.00 -- 36.3 47.5
12/05/2019 15:00 455.35 0.00 -- 37.4 47.8
12/05/2019 14:00 455.35 0.00 -- 38.6 47.8
12/05/2019 13:00 455.35 0.00 -- 39.7 48.0
12/05/2019 12:00 455.34 0.00 -- 39.5 47.5
12/05/2019 11:00 455.35 0.00 -- 37.4 47.5
12/05/2019 10:00 455.35 0.00 -- 34.5 47.8
12/05/2019 09:00 455.35 0.00 -- 29.2 48.0
12/05/2019 08:00 455.36 0.00 -- 25.8 48.3
12/05/2019 07:00 455.35 0.00 -- 24.6 48.0
12/05/2019 06:00 455.35 0.00 -- 24.4 48.3
12/05/2019 05:00 455.36 0.00 -- 23.6 48.5
12/05/2019 04:00 455.36 0.00 -- 24.2 48.8
12/05/2019 03:00 455.35 0.00 -- 23.6 48.5
12/05/2019 02:00 455.35 0.00 -- 24.9 48.8
12/05/2019 01:00 455.36 0.00 -- 25.8 49.0
12/05/2019 00:00 455.36 0.00 0.00 25.5 49.3
12/04/2019 23:00 455.36 0.00 -- 25.9 49.0
12/04/2019 22:00 455.36 0.00 -- 26.3 49.0
12/04/2019 21:00 455.36 0.00 -- 28.3 49.0
12/04/2019 20:00 455.36 0.00 -- 29.5 49.3
12/04/2019 19:00 455.36 0.00 -- 29.5 49.3
12/04/2019 18:00 455.36 0.00 -- 30.2 49.3
12/04/2019 17:00 455.36 0.00 -- 33.0 49.0
12/04/2019 16:00 455.36 0.00 -- 35.0 49.3
12/04/2019 15:00 455.36 0.00 -- 35.4 49.5
12/04/2019 14:00 455.36 0.00 -- 40.0 49.3
12/04/2019 13:00 455.37 0.00 -- 35.7 49.5
12/04/2019 12:00 455.36 0.00 -- 33.8 50.0
12/04/2019 11:00 455.37 0.00 -- 32.4 49.8
12/04/2019 10:00 455.37 0.00 -- 31.6 49.8
12/04/2019 09:00 455.37 0.00 -- 29.0 50.3
12/04/2019 08:00 455.37 0.00 -- 27.7 49.5
12/04/2019 07:00 455.38 0.00 -- 29.3 50.5
12/04/2019 06:00 455.37 0.00 -- 29.4 50.0
12/04/2019 05:00 455.38 0.00 -- 30.4 51.3
12/04/2019 04:00 455.38 0.00 -- 30.1 50.5
12/04/2019 03:00 455.38 0.00 -- 29.2 52.0
12/04/2019 02:00 455.39 0.00 -- 29.9 52.0
12/04/2019 01:00 455.38 0.00 -- 29.8 51.0
12/04/2019 00:00 455.38 0.00 0.00 29.6 51.5
12/03/2019 23:00 455.39 0.00 -- 29.0 51.8
12/03/2019 22:00 455.38 0.00 -- 27.8 51.8
12/03/2019 21:00 455.39 0.00 -- 29.4 51.8
12/03/2019 20:00 455.39 0.00 -- 30.2 52.3
12/03/2019 19:00 455.39 0.00 -- 30.4 52.0
12/03/2019 18:00 455.39 0.00 -- 29.9 52.5
12/03/2019 17:00 455.39 0.00 -- 29.3 52.8
12/03/2019 16:00 455.39 0.00 -- 28.9 52.3
12/03/2019 15:00 455.39 0.00 -- 29.9 53.0
12/03/2019 14:00 455.39 0.00 -- 31.3 52.8
12/03/2019 13:00 455.39 0.00 -- 31.2 52.5
12/03/2019 12:00 455.38 0.00 -- 30.7 52.5
12/03/2019 11:00 455.39 0.00 -- 30.0 52.3
12/03/2019 10:00 455.38 0.00 -- 30.3 51.5
12/03/2019 09:00 455.39 0.00 -- 32.5 51.5
12/03/2019 08:00 455.39 0.00 -- 32.5 52.0
12/03/2019 07:00 455.38 0.00 -- 32.0 52.3
12/03/2019 06:00 455.38 0.00 -- 32.9 51.5
12/03/2019 05:00 455.39 0.00 -- 32.2 51.8
12/03/2019 04:00 455.38 0.00 -- 29.5 52.3
12/03/2019 03:00 455.38 0.00 -- 29.2 52.0
12/03/2019 02:00 455.38 0.00 -- 29.0 52.3
12/03/2019 01:00 455.39 0.00 -- 28.2 52.3
12/03/2019 00:00 455.39 0.00 0.00 29.4 52.0
12/02/2019 23:00 455.39 0.00 -- 32.3 52.5
12/02/2019 22:00 455.39 0.00 -- 33.5 52.5
12/02/2019 21:00 455.39 0.00 -- 33.7 52.3
12/02/2019 20:00 455.39 0.00 -- 34.0 52.3
12/02/2019 19:00 455.39 0.00 -- 34.1 52.8
12/02/2019 18:00 455.38 0.00 -- 33.6 52.5
12/02/2019 17:00 455.39 0.00 -- 32.7 52.8
12/02/2019 16:00 455.40 0.00 -- 32.5 52.8
12/02/2019 15:00 455.39 0.00 -- 32.6 52.8
12/02/2019 14:00 455.39 0.00 -- 32.7 52.8
12/02/2019 13:00 455.39 0.00 -- 32.2 52.8
12/02/2019 12:00 455.39 0.00 -- 31.7 52.3
12/02/2019 11:00 455.39 0.00 -- 31.2 53.0
12/02/2019 10:00 455.39 0.00 -- 31.8 53.3
12/02/2019 09:00 455.39 0.00 -- 31.1 52.8
12/02/2019 08:00 455.40 0.00 -- 30.1 53.0
12/02/2019 07:00 455.39 0.00 -- 29.5 53.0
12/02/2019 06:00 455.40 0.00 -- 29.4 53.3
12/02/2019 05:00 455.40 0.00 -- 27.4 53.3
12/02/2019 04:00 455.40 0.00 -- 24.9 53.3
12/02/2019 03:00 455.40 0.00 -- 24.6 53.5
12/02/2019 02:00 455.40 0.00 -- 24.0 53.8
12/02/2019 01:00 455.39 0.00 -- 24.5 53.0
12/02/2019 00:00 455.40 0.00 0.00 26.9 53.3
12/01/2019 23:00 455.39 0.00 -- 27.7 52.7
12/01/2019 22:00 455.39 0.00 -- 27.2 53.0
12/01/2019 21:00 455.39 0.00 -- 27.9 53.0
12/01/2019 20:00 455.39 0.00 -- 28.7 53.0
12/01/2019 19:00 455.39 0.00 -- 29.4 53.0
12/01/2019 18:00 455.39 0.00 -- 30.1 53.0
12/01/2019 17:00 455.39 0.00 -- 30.9 53.0
12/01/2019 16:00 455.40 0.00 -- 30.9 54.0
12/01/2019 15:00 455.40 0.00 -- 32.3 54.0
12/01/2019 14:00 455.39 -- -- 30.7 53.0
12/01/2019 13:00 455.39 0.00 -- 30.7 53.0
12/01/2019 12:00 455.39 0.00 -- 30.3 53.0
12/01/2019 11:00 455.40 0.00 -- 29.9 53.0
12/01/2019 10:00 455.40 0.00 -- 29.4 53.0
12/01/2019 09:00 455.40 0.00 -- 29.0 53.0
12/01/2019 08:00 455.40 0.00 -- 28.6 53.0
12/01/2019 07:00 455.41 0.00 -- 28.1 53.0
12/01/2019 06:00 455.41 0.00 -- 27.7 53.0
12/01/2019 05:00 455.41 0.00 -- 27.3 53.0
12/01/2019 04:00 455.42 0.00 -- 26.8 53.0
12/01/2019 03:00 455.42 0.00 -- 26.4 53.0
12/01/2019 02:00 455.42 0.00 -- 26.0 53.0
12/01/2019 01:00 455.42 0.00 -- 25.6 53.0
12/01/2019 00:00 455.43 0.00 -- 25.1 53.0
11/30/2019 23:00 455.43 0.00 -- 24.7 53.0
11/30/2019 22:00 455.43 0.00 -- 24.3 53.0
11/30/2019 21:00 455.44 0.00 -- 23.8 53.0
11/30/2019 20:00 455.44 0.00 -- 23.4 53.0
11/30/2019 19:00 455.44 0.00 -- 23.0 53.0
11/30/2019 18:00 455.44 0.00 -- 22.5 53.0
11/30/2019 17:00 455.45 0.00 -- 22.1 53.0
11/30/2019 16:00 455.45 0.00 -- 21.7 53.0
11/30/2019 15:00 455.45 0.00 -- 21.3 53.0
11/30/2019 14:00 455.46 0.00 -- 20.8 53.0
11/30/2019 13:00 455.46 0.00 -- 20.4 53.0
11/30/2019 12:00 455.46 0.00 -- 20.0 53.0
11/30/2019 11:00 455.46 0.00 -- 19.5 53.0
11/30/2019 10:00 455.47 0.00 -- 19.1 53.0
11/30/2019 09:00 455.47 0.00 -- 18.7 63.0
11/30/2019 08:00 455.48 0.00 -- 15.8 64.0
11/30/2019 07:00 455.48 0.00 -- 16.0 63.0
11/30/2019 06:00 455.48 0.00 -- 17.9 64.0
11/30/2019 05:00 455.48 0.00 -- 19.2 63.8
11/30/2019 04:00 455.49 0.00 -- 22.5 64.3
11/30/2019 03:00 455.49 0.00 -- 22.7 64.5
11/30/2019 02:00 455.48 0.00 -- 23.1 65.3
11/30/2019 01:00 455.49 0.00 -- 23.1 65.0
11/30/2019 00:00 455.50 0.00 0.00 23.4 66.8
11/29/2019 23:00 455.51 0.00 -- 23.0 67.0
11/29/2019 22:00 455.51 0.00 -- 23.7 68.3
11/29/2019 21:00 455.53 0.00 -- 24.6 68.5
11/29/2019 20:00 455.51 0.00 -- 25.9 68.0
11/29/2019 19:00 455.52 0.00 -- 26.7 68.8
11/29/2019 18:00 455.52 0.00 -- 28.5 68.8
11/29/2019 17:00 455.52 0.00 -- 29.6 69.3
11/29/2019 16:00 455.53 0.00 -- 31.9 70.5
11/29/2019 15:00 455.53 0.00 -- 35.0 70.5
11/29/2019 14:00 455.54 0.00 -- 35.7 71.8
11/29/2019 13:00 455.56 0.00 -- 35.6 73.0
11/29/2019 12:00 455.55 0.00 -- 35.3 72.3
11/29/2019 11:00 455.55 0.00 -- 36.0 72.0
11/29/2019 10:00 455.54 0.00 -- 36.5 72.5
11/29/2019 09:00 455.54 0.00 -- 34.3 71.8
11/29/2019 08:00 455.55 0.00 -- 29.9 73.5
11/29/2019 07:00 455.57 0.00 -- 28.5 75.5
11/29/2019 06:00 455.55 0.00 -- 30.4 74.8
11/29/2019 05:00 455.58 0.00 -- 31.7 75.8
11/29/2019 04:00 455.58 0.00 -- 31.4 75.8
11/29/2019 03:00 455.57 0.00 -- 30.0 74.5
11/29/2019 02:00 455.56 0.00 -- 32.6 74.8
11/29/2019 01:00 455.57 0.00 -- 33.8 75.0
11/29/2019 00:00 455.56 0.00 0.00 33.2 75.0
11/28/2019 23:00 455.56 0.00 -- 33.0 74.8
11/28/2019 22:00 455.56 0.00 -- 34.3 75.5
11/28/2019 21:00 455.56 0.00 -- 33.9 75.3
11/28/2019 20:00 455.57 0.00 -- 33.9 75.3
11/28/2019 19:00 455.57 0.00 -- 33.4 75.0
11/28/2019 18:00 455.56 0.00 -- 35.3 75.0
11/28/2019 17:00 455.56 0.00 -- 36.1 74.5
11/28/2019 16:00 455.57 0.00 -- 37.2 74.5
11/28/2019 15:00 455.56 0.00 -- 40.0 74.3
11/28/2019 14:00 455.56 0.00 -- 40.1 73.5
11/28/2019 13:00 455.56 0.00 -- 40.0 73.0
11/28/2019 12:00 455.55 0.00 -- 39.4 73.0
11/28/2019 11:00 455.56 0.00 -- 39.5 72.3
11/28/2019 10:00 455.53 0.00 -- 38.9 71.0
11/28/2019 09:00 455.54 0.00 -- 37.5 70.8
11/28/2019 08:00 455.53 0.00 -- 36.5 70.0
11/28/2019 07:00 455.52 0.00 -- 35.8 69.0
11/28/2019 06:00 455.51 0.00 -- 35.9 68.0
11/28/2019 05:00 455.51 0.00 -- 35.9 67.5
11/28/2019 04:00 455.50 0.00 -- 36.0 66.5
11/28/2019 03:00 455.49 0.00 -- 36.2 65.8
11/28/2019 02:00 455.49 0.00 -- 36.1 64.8
11/28/2019 01:00 455.49 0.00 -- 36.0 63.8
11/28/2019 00:00 455.48 0.00 0.00 36.2 64.5
11/27/2019 23:00 455.48 0.00 -- 36.5 63.0
11/27/2019 22:00 455.47 0.00 -- 36.0 62.5
11/27/2019 21:00 455.47 0.00 -- 36.3 62.0
11/27/2019 20:00 455.46 0.00 -- 37.1 61.0
11/27/2019 19:00 455.45 0.00 -- 38.9 59.8
11/27/2019 18:00 455.45 0.00 -- 40.1 60.0
11/27/2019 17:00 455.45 0.00 -- 41.0 59.8
11/27/2019 16:00 455.46 0.00 -- 42.0 60.8
11/27/2019 15:00 455.46 0.00 -- 43.1 61.0
11/27/2019 14:00 455.46 0.00 -- 45.4 61.3
11/27/2019 13:00 455.46 0.00 -- 40.6 61.8
11/27/2019 12:00 455.47 0.00 -- 39.3 61.8
11/27/2019 11:00 455.47 0.00 -- 36.2 62.3
11/27/2019 10:00 455.47 0.00 -- 34.8 62.3
11/27/2019 09:00 455.48 0.00 -- 31.5 63.3
11/27/2019 08:00 455.47 0.00 -- 28.9 63.0
11/27/2019 07:00 455.48 0.00 -- 26.6 64.0
11/27/2019 06:00 455.48 0.00 -- 26.5 64.0
11/27/2019 05:00 455.49 0.00 -- 27.4 64.0
11/27/2019 04:00 455.48 0.00 -- 27.5 64.5
11/27/2019 03:00 455.50 0.00 -- 29.4 65.5
11/27/2019 02:00 455.49 0.00 -- 29.9 66.0
11/27/2019 01:00 455.50 0.00 -- 30.1 66.5
11/27/2019 00:00 455.50 0.00 0.00 30.8 67.3
11/26/2019 23:00 455.51 0.00 -- 32.0 68.0
11/26/2019 22:00 455.51 0.00 -- 33.0 67.3
11/26/2019 21:00 455.51 0.00 -- 34.1 67.8
11/26/2019 20:00 455.52 0.00 -- 35.8 69.0
11/26/2019 19:00 455.52 0.00 -- 42.2 69.0
11/26/2019 18:00 455.52 0.00 -- 46.9 69.0
11/26/2019 17:00 455.53 0.00 -- 50.2 70.8
11/26/2019 16:00 455.53 0.00 -- 53.2 70.3
11/26/2019 15:00 455.53 0.00 -- 52.0 71.0
11/26/2019 14:00 455.54 0.00 -- 50.3 70.3
11/26/2019 13:00 455.53 0.00 -- 48.8 70.8
11/26/2019 12:00 455.53 0.00 -- 41.0 71.3
11/26/2019 11:00 455.53 0.00 -- 35.9 71.5
11/26/2019 10:00 455.54 0.00 -- 29.9 71.3
11/26/2019 09:00 455.54 0.00 -- 26.7 72.3
11/26/2019 08:00 455.55 0.00 -- 25.3 72.5
11/26/2019 07:00 455.56 0.00 -- 25.2 73.3
11/26/2019 06:00 455.55 0.00 -- 25.3 73.3
11/26/2019 05:00 455.56 0.00 -- 26.3 74.5
11/26/2019 04:00 455.56 0.00 -- 26.4 73.8
11/26/2019 03:00 455.56 0.00 -- 26.8 74.3
11/26/2019 02:00 455.55 0.00 -- 26.8 74.0
11/26/2019 01:00 455.56 0.00 -- 27.9 74.8
11/26/2019 00:00 455.56 0.00 0.00 27.8 75.0
11/25/2019 23:00 455.55 0.00 -- 28.3 74.0
11/25/2019 22:00 455.57 0.00 -- 29.6 75.3
11/25/2019 21:00 455.57 0.00 -- 30.3 73.8
11/25/2019 20:00 455.56 0.00 -- 31.2 73.3
11/25/2019 19:00 455.55 0.00 -- 34.4 73.0
11/25/2019 18:00 455.54 0.00 -- 40.0 72.3
11/25/2019 17:00 455.56 0.00 -- 45.3 73.3
11/25/2019 16:00 455.53 0.00 -- 47.6 71.5
11/25/2019 15:00 455.53 0.00 -- 47.6 71.0
11/25/2019 14:00 455.53 0.00 -- 47.0 69.8
11/25/2019 13:00 455.52 0.00 -- 45.1 69.5
11/25/2019 12:00 455.51 0.00 -- 46.3 68.5
11/25/2019 11:00 455.50 0.00 -- 45.0 67.0
11/25/2019 10:00 455.50 0.00 -- 43.7 65.3
11/25/2019 09:00 455.48 0.00 -- 40.8 63.8
11/25/2019 08:00 455.47 0.00 -- 39.4 62.5
11/25/2019 07:00 455.45 0.00 -- 38.9 60.8
11/25/2019 06:00 455.46 0.00 -- 37.9 59.5
11/25/2019 05:00 455.47 0.00 -- 37.9 60.3
11/25/2019 04:00 455.43 0.00 -- 38.5 57.3
11/25/2019 03:00 455.43 0.00 -- 39.1 57.0
11/25/2019 02:00 455.42 0.00 -- 38.6 54.5
11/25/2019 01:00 455.40 0.00 -- 37.7 53.0
11/25/2019 00:00 455.39 0.00 0.00 34.5 51.3
11/24/2019 23:00 455.37 0.00 -- 35.2 50.5
11/24/2019 22:00 455.36 0.00 -- 35.3 48.8
11/24/2019 21:00 455.35 0.00 -- 35.8 47.8
11/24/2019 20:00 455.34 0.00 -- 35.7 46.5
11/24/2019 19:00 455.33 0.00 -- 36.4 45.3
11/24/2019 18:00 455.31 0.00 -- 35.3 43.8
11/24/2019 17:00 455.31 0.00 -- 34.7 42.8
11/24/2019 16:00 455.30 0.00 -- 33.7 42.5
11/24/2019 15:00 455.29 0.00 -- 32.8 41.0
11/24/2019 14:00 455.28 0.00 -- 32.2 40.0
11/24/2019 13:00 455.28 0.00 -- 31.4 40.0
11/24/2019 12:00 455.28 0.00 -- 30.2 40.0
11/24/2019 11:00 455.27 0.00 -- 29.7 39.8
11/24/2019 10:00 455.27 0.00 -- 29.9 40.0
11/24/2019 09:00 455.28 0.00 -- 29.6 40.3
11/24/2019 08:00 455.27 0.00 -- 28.8 40.3
11/24/2019 07:00 455.28 0.00 -- 28.8 40.0
11/24/2019 06:00 455.28 0.00 -- 28.5 40.3
11/24/2019 05:00 455.29 0.00 -- 27.2 40.5
11/24/2019 04:00 455.28 0.00 -- 26.5 40.5
11/24/2019 03:00 455.28 0.00 -- 25.3 41.0
11/24/2019 02:00 455.29 0.00 -- 25.1 41.0
11/24/2019 01:00 455.29 0.00 -- 24.9 41.0
11/24/2019 00:00 455.29 0.00 0.00 26.6 41.0
11/23/2019 23:00 455.29 0.00 -- 27.2 41.0
11/23/2019 22:00 455.29 0.00 -- 30.5 41.5
11/23/2019 21:00 455.29 0.00 -- 33.8 42.0
11/23/2019 20:00 455.29 0.00 -- 32.0 41.8
11/23/2019 19:00 455.29 0.00 -- 34.4 41.8
11/23/2019 18:00 455.30 0.00 -- 34.7 42.0
11/23/2019 17:00 455.29 0.00 -- 38.4 42.3
11/23/2019 16:00 455.30 0.00 -- 42.1 42.0
11/23/2019 15:00 455.30 0.00 -- 42.0 42.8
11/23/2019 14:00 455.30 0.00 -- 40.6 42.5
11/23/2019 13:00 455.31 0.00 -- 39.1 42.8
11/23/2019 12:00 455.31 0.00 -- 37.5 43.8
11/23/2019 11:00 455.31 0.00 -- 34.2 44.3
11/23/2019 10:00 455.33 0.00 -- 31.2 45.5
11/23/2019 09:00 455.33 0.00 -- 30.1 46.3
11/23/2019 08:00 455.32 0.00 -- 28.9 45.5
11/23/2019 07:00 455.33 0.00 -- 29.3 45.3
11/23/2019 06:00 455.32 0.00 -- 29.9 45.3
11/23/2019 05:00 455.31 0.00 -- 29.6 43.5
11/23/2019 04:00 455.31 0.00 -- 29.7 42.8
11/23/2019 03:00 455.31 0.00 -- 29.8 43.3
11/23/2019 02:00 455.30 0.00 -- 30.3 43.5
11/23/2019 01:00 455.31 0.00 -- 31.2 44.0
11/23/2019 00:00 455.31 0.00 0.00 32.5 43.8
11/22/2019 23:00 455.32 0.00 -- 32.8 44.5
11/22/2019 22:00 455.31 0.00 -- 34.3 44.3
11/22/2019 21:00 455.31 0.00 -- 35.1 43.8
11/22/2019 20:00 455.30 0.00 -- 35.9 43.3
11/22/2019 19:00 455.32 0.00 -- 39.8 44.8
11/22/2019 18:00 455.32 0.00 -- 42.6 44.5
11/22/2019 17:00 455.32 0.00 -- 43.1 44.5
11/22/2019 16:00 455.32 0.00 -- 41.3 44.0
11/22/2019 15:00 455.32 0.00 -- 40.9 45.0
11/22/2019 14:00 455.32 0.00 -- 40.1 44.5
11/22/2019 13:00 455.31 0.00 -- 40.8 44.3
11/22/2019 12:00 455.32 0.00 -- 39.6 44.3
11/22/2019 11:00 455.31 0.00 -- 37.5 44.0
11/22/2019 10:00 455.32 0.00 -- 36.5 44.8
11/22/2019 09:00 455.32 0.00 -- 33.7 44.3
11/22/2019 08:00 455.32 0.00 -- 33.1 44.3
11/22/2019 07:00 455.32 0.00 -- 32.8 44.8
11/22/2019 06:00 455.32 0.00 -- 32.5 44.5
11/22/2019 05:00 455.32 0.00 -- 32.3 44.5
11/22/2019 04:00 455.32 0.00 -- 32.4 45.0
11/22/2019 03:00 455.32 0.00 -- 31.8 45.0
11/22/2019 02:00 455.32 0.00 -- 31.3 45.3
11/22/2019 01:00 455.33 0.00 -- 30.4 45.8
11/22/2019 00:00 455.33 0.00 0.00 30.1 45.3
11/21/2019 23:00 455.33 0.00 -- 29.6 45.5
11/21/2019 22:00 455.33 0.00 -- 29.2 46.0
11/21/2019 21:00 455.33 0.00 -- 30.1 46.3
11/21/2019 20:00 455.33 0.00 -- 30.6 46.0
11/21/2019 19:00 455.34 0.00 -- 32.8 46.5
11/21/2019 18:00 455.33 0.00 -- 36.3 46.5
11/21/2019 17:00 455.34 0.00 -- 45.0 46.5
11/21/2019 16:00 455.34 0.00 -- 48.3 46.8
11/21/2019 15:00 455.33 0.00 -- 49.7 46.8
11/21/2019 14:00 455.34 0.00 -- 49.3 47.0
11/21/2019 13:00 455.34 0.00 -- 43.9 46.5
11/21/2019 12:00 455.34 0.00 -- 44.1 47.0
11/21/2019 11:00 455.34 0.00 -- 41.2 46.8
11/21/2019 10:00 455.34 0.00 -- 35.0 46.8
11/21/2019 09:00 455.34 0.00 -- 29.2 46.8
11/21/2019 08:00 455.34 0.00 -- 28.2 47.0
11/21/2019 07:00 455.34 0.00 -- 28.4 47.0
11/21/2019 06:00 455.34 0.00 -- 29.4 47.0
11/21/2019 05:00 455.34 0.00 -- 30.6 47.0
11/21/2019 04:00 455.35 0.00 -- 30.3 47.0
11/21/2019 03:00 455.34 0.00 -- 31.3 47.0
11/21/2019 02:00 455.34 0.00 -- 31.5 46.8
11/21/2019 01:00 455.34 0.00 -- 31.4 47.0
11/21/2019 00:00 455.34 0.00 0.00 31.8 47.0
11/20/2019 23:00 455.34 0.00 -- 34.5 46.8
11/20/2019 22:00 455.35 0.00 -- 34.8 47.0
11/20/2019 21:00 455.34 0.00 -- 34.9 47.0
11/20/2019 20:00 455.34 0.00 -- 35.3 46.5
11/20/2019 19:00 455.34 0.00 -- 36.0 46.8
11/20/2019 18:00 455.34 0.00 -- 36.6 46.5
11/20/2019 17:00 455.33 0.00 -- 37.3 46.3
11/20/2019 16:00 455.34 0.00 -- 36.7 45.8
11/20/2019 15:00 455.33 0.00 -- 36.8 46.0
11/20/2019 14:00 455.33 0.00 -- 36.7 45.5
11/20/2019 13:00 455.33 0.00 -- 36.2 45.3
11/20/2019 12:00 455.32 0.00 -- 36.1 44.8
11/20/2019 11:00 455.32 0.00 -- 35.8 44.3
11/20/2019 10:00 455.32 0.00 -- 35.6 44.3
11/20/2019 09:00 455.32 0.00 -- 35.0 44.0
11/20/2019 08:00 455.31 0.00 -- 35.1 44.0
11/20/2019 07:00 455.31 0.00 -- 34.9 43.5
11/20/2019 06:00 455.31 0.00 -- 35.0 43.0
11/20/2019 05:00 455.30 0.00 -- 34.7 42.5
11/20/2019 04:00 455.30 0.00 -- 34.7 42.0
11/20/2019 03:00 455.29 0.00 -- 34.4 42.0
11/20/2019 02:00 455.29 0.00 -- 34.3 41.0
11/20/2019 01:00 455.29 0.00 -- 34.7 40.8
11/20/2019 00:00 455.28 0.00 0.00 34.9 40.0
11/19/2019 23:00 455.28 0.00 -- 35.2 39.8
11/19/2019 22:00 455.28 0.00 -- 35.4 39.3
11/19/2019 21:00 455.27 0.00 -- 35.6 39.0
11/19/2019 20:00 455.27 0.00 -- 36.2 38.3
11/19/2019 19:00 455.26 0.00 -- 36.7 38.0
11/19/2019 18:00 455.26 0.00 -- 37.4 37.8
11/19/2019 17:00 455.25 0.00 -- 37.6 37.0
11/19/2019 16:00 455.25 0.00 -- 37.4 36.8
11/19/2019 15:00 455.24 0.00 -- 37.7 36.3
11/19/2019 14:00 455.23 0.00 -- 36.3 35.0
11/19/2019 13:00 455.23 0.00 -- 35.6 34.5
11/19/2019 12:00 455.22 0.00 -- 36.8 34.0
11/19/2019 11:00 455.22 0.00 -- 36.4 34.0
11/19/2019 10:00 455.21 0.00 -- 36.6 33.3
11/19/2019 09:00 455.21 0.00 -- 34.9 33.0
11/19/2019 08:00 455.21 0.00 -- 34.7 33.0
11/19/2019 07:00 455.21 0.00 -- 35.6 33.0
11/19/2019 06:00 455.21 0.00 -- 34.8 33.0
11/19/2019 05:00 455.21 0.00 -- 35.6 33.0
11/19/2019 04:00 455.20 0.00 -- 35.0 33.0
11/19/2019 03:00 455.20 0.00 -- 35.4 32.8
11/19/2019 02:00 455.20 0.00 -- 34.7 32.8
11/19/2019 01:00 455.20 0.00 -- 34.9 32.8
11/19/2019 00:00 455.20 0.00 0.00 35.1 32.0
11/18/2019 23:00 455.20 0.00 -- 34.9 32.0
11/18/2019 22:00 455.20 0.00 -- 35.0 32.0
11/18/2019 21:00 455.20 0.00 -- 36.0 32.0
11/18/2019 20:00 455.20 0.00 -- 36.6 32.3
11/18/2019 19:00 455.20 0.00 -- 37.2 32.0
11/18/2019 18:00 455.20 0.00 -- 39.0 32.3
11/18/2019 17:00 455.20 0.00 -- 37.9 32.3
11/18/2019 16:00 455.20 0.00 -- 38.0 32.0
11/18/2019 15:00 455.20 0.00 -- 37.9 32.0
11/18/2019 14:00 455.20 0.00 -- 37.2 32.0
11/18/2019 13:00 455.20 0.00 -- 36.4 32.0
11/18/2019 12:00 455.20 0.00 -- 36.3 32.5
11/18/2019 11:00 455.20 0.00 -- 34.7 32.0
11/18/2019 10:00 455.20 0.00 -- 31.6 32.8
11/18/2019 09:00 455.20 0.00 -- 29.1 32.8
11/18/2019 08:00 455.21 0.00 -- 27.8 33.0
11/18/2019 07:00 455.20 0.00 -- 27.3 33.0
11/18/2019 06:00 455.21 0.00 -- 27.0 33.0
11/18/2019 05:00 455.21 0.00 -- 27.6 33.0
11/18/2019 04:00 455.21 0.00 -- 26.2 33.0
11/18/2019 03:00 455.21 0.00 -- 26.5 33.3
11/18/2019 02:00 455.21 0.00 -- 26.0 33.0
11/18/2019 01:00 455.21 0.00 -- 25.5 33.0
11/18/2019 00:00 455.21 0.00 0.00 24.8 33.3
11/17/2019 23:00 455.21 0.00 -- 24.8 33.0
11/17/2019 22:00 455.21 0.00 -- 24.2 33.5
11/17/2019 21:00 455.21 0.00 -- 24.1 34.0
11/17/2019 20:00 455.21 0.00 -- 22.3 33.8
11/17/2019 19:00 455.22 0.00 -- 24.7 34.0
11/17/2019 18:00 455.22 0.00 -- 27.4 34.0
11/17/2019 17:00 455.22 0.00 -- 33.3 34.0
11/17/2019 16:00 455.22 0.00 -- 34.5 34.0
11/17/2019 15:00 455.22 0.00 -- 34.4 34.0
11/17/2019 14:00 455.22 0.00 -- 33.9 34.0
11/17/2019 13:00 455.22 0.00 -- 29.6 34.0
11/17/2019 12:00 455.22 0.00 -- 25.3 34.0
11/17/2019 11:00 455.22 0.00 -- 19.7 34.0
11/17/2019 10:00 455.22 0.00 -- 17.0 34.0
11/17/2019 09:00 455.22 0.00 -- 14.0 34.3
11/17/2019 08:00 455.22 0.00 -- 10.4 34.3
11/17/2019 07:00 455.22 0.00 -- 9.9 34.5
11/17/2019 06:00 455.22 0.00 -- 9.8 35.0
11/17/2019 05:00 455.22 0.00 -- 10.1 35.0
11/17/2019 04:00 455.23 0.00 -- 11.8 35.0
11/17/2019 03:00 455.23 0.00 -- 13.9 35.0
11/17/2019 02:00 455.23 0.00 -- 13.9 35.3
11/17/2019 01:00 455.23 0.00 -- 15.1 35.0
11/17/2019 00:00 455.23 0.00 0.00 16.2 35.3
11/16/2019 23:00 455.23 0.00 -- 16.4 35.3
11/16/2019 22:00 455.23 0.00 -- 19.7 35.5
11/16/2019 21:00 455.24 0.00 -- 21.0 35.8
11/16/2019 20:00 455.24 0.00 -- 22.2 36.0
11/16/2019 19:00 455.23 0.00 -- 23.8 35.8
11/16/2019 18:00 455.24 0.00 -- 26.1 35.8
11/16/2019 17:00 455.24 0.00 -- 29.9 36.0
11/16/2019 16:00 455.24 0.00 -- 30.5 36.0
11/16/2019 15:00 455.24 0.00 -- 30.7 36.0
11/16/2019 14:00 455.24 0.00 -- 28.6 36.3
11/16/2019 13:00 455.23 0.00 -- 27.5 35.8
11/16/2019 12:00 455.23 0.00 -- 25.3 35.3
11/16/2019 11:00 455.24 0.00 -- 22.4 36.0
11/16/2019 10:00 455.24 0.00 -- 20.2 36.0
11/16/2019 09:00 455.24 0.00 -- 17.4 35.8
11/16/2019 08:00 455.23 0.00 -- 15.5 35.5
11/16/2019 07:00 455.23 0.00 -- 16.7 36.3
11/16/2019 06:00 455.24 0.00 -- 18.0 36.0
11/16/2019 05:00 455.24 0.00 -- 19.7 36.0
11/16/2019 04:00 455.25 0.00 -- 21.9 36.8
11/16/2019 03:00 455.25 0.00 -- 23.7 36.8
11/16/2019 02:00 455.24 0.00 -- 25.6 36.0
11/16/2019 01:00 455.25 0.00 -- 29.1 36.8
11/16/2019 00:00 455.24 0.00 0.00 32.0 36.8
11/15/2019 23:00 455.25 0.00 -- 33.0 37.0
11/15/2019 22:00 455.24 0.00 -- 34.0 38.3
11/15/2019 21:00 455.26 0.00 -- 39.7 38.0
11/15/2019 20:00 455.26 0.00 -- 40.1 37.8
11/15/2019 19:00 455.26 0.00 -- 40.4 38.5
11/15/2019 18:00 455.26 0.00 -- 41.1 38.0
11/15/2019 17:00 455.26 0.00 -- 42.9 39.0
11/15/2019 16:00 455.27 0.00 -- 45.5 39.5
11/15/2019 15:00 455.27 0.00 -- 45.6 39.8
11/15/2019 14:00 455.28 0.00 -- 44.5 40.3
11/15/2019 13:00 455.29 0.00 -- 41.8 40.8
11/15/2019 12:00 455.29 0.00 -- 39.0 41.5
11/15/2019 11:00 455.30 0.00 -- 36.6 42.3
11/15/2019 10:00 455.30 0.00 -- 33.8 43.3
11/15/2019 09:00 455.31 0.00 -- 31.8 43.8
11/15/2019 08:00 455.32 0.00 -- 26.5 44.3
11/15/2019 07:00 455.32 0.00 -- 24.6 44.8
11/15/2019 06:00 455.33 0.00 -- 25.4 45.3
11/15/2019 05:00 455.33 0.00 -- 24.5 46.5
11/15/2019 04:00 455.35 0.00 -- 24.5 47.8
11/15/2019 03:00 455.36 0.00 -- 23.9 48.8
11/15/2019 02:00 455.36 0.00 -- 23.3 50.0
11/15/2019 01:00 455.37 0.00 -- 23.1 51.5
11/15/2019 00:00 455.39 0.00 0.00 22.6 53.3
11/14/2019 23:00 455.41 0.00 -- 22.8 54.5
11/14/2019 22:00 455.42 0.00 -- 23.3 56.8
11/14/2019 21:00 455.44 0.00 -- 23.7 58.5
11/14/2019 20:00 455.45 0.00 -- 24.1 61.0
11/14/2019 19:00 455.47 0.00 -- 24.2 63.0
11/14/2019 18:00 455.48 0.00 -- 24.0 65.3
11/14/2019 17:00 455.50 0.00 -- 23.1 68.3
11/14/2019 16:00 455.54 0.00 -- 25.1 72.3
11/14/2019 15:00 455.56 0.00 -- 25.5 75.0
11/14/2019 14:00 455.57 0.00 -- 25.3 78.0
11/14/2019 13:00 455.62 0.00 -- 24.8 82.8
11/14/2019 12:00 455.64 0.00 -- 23.4 86.8
11/14/2019 11:00 455.68 0.00 -- 21.4 59.8
11/14/2019 10:00 455.89 0.00 -- 17.2 34.0
11/14/2019 09:00 455.89 0.00 -- 14.4 34.0
11/14/2019 08:00 455.89 0.00 -- 13.2 34.0
11/14/2019 07:00 455.89 0.00 -- 12.9 34.0
11/14/2019 06:00 455.89 0.00 -- 12.2 34.0
11/14/2019 05:00 455.89 0.00 -- 12.0 34.0
11/14/2019 04:00 455.89 0.00 -- 13.3 34.3
11/14/2019 03:00 455.90 0.00 -- 14.5 34.8
11/14/2019 02:00 455.90 0.00 -- 14.3 34.5
11/14/2019 01:00 455.90 0.00 -- 13.7 35.0
11/14/2019 00:00 455.90 0.00 0.00 14.1 35.0
11/13/2019 23:00 455.90 0.00 -- 13.3 35.0
11/13/2019 22:00 455.90 0.00 -- 14.6 35.0
11/13/2019 21:00 455.91 0.00 -- 16.1 35.3
11/13/2019 20:00 455.91 0.00 -- 17.8 35.3
11/13/2019 19:00 455.91 0.00 -- 18.2 36.3
11/13/2019 18:00 455.91 0.00 -- 18.6 35.8
11/13/2019 17:00 455.91 0.00 -- 20.3 36.0
11/13/2019 16:00 455.92 0.00 -- 22.3 36.0
11/13/2019 15:00 455.92 0.00 -- 22.9 36.0
11/13/2019 14:00 455.91 0.00 -- 23.1 35.5
11/13/2019 13:00 455.92 0.00 -- 21.6 36.5
11/13/2019 12:00 455.92 0.00 -- 19.9 36.8
11/13/2019 11:00 455.92 0.00 -- 17.6 36.5
11/13/2019 10:00 455.93 0.00 -- 16.1 36.3
11/13/2019 09:00 455.93 0.00 -- 14.0 37.0
11/13/2019 08:00 455.92 0.00 -- 12.3 36.8
11/13/2019 07:00 455.92 0.00 -- 10.5 36.5
11/13/2019 06:00 455.93 0.00 -- 11.3 36.5
11/13/2019 05:00 455.92 0.00 -- 11.9 37.0
11/13/2019 04:00 455.93 0.00 -- 11.7 37.0
11/13/2019 03:00 455.93 0.00 -- 13.4 37.0
11/13/2019 02:00 455.93 0.00 -- 14.1 37.0
11/13/2019 01:00 455.93 0.00 -- 16.5 37.0
11/13/2019 00:00 455.93 0.00 0.00 17.3 37.0
11/12/2019 23:00 455.94 0.00 -- 18.4 37.3
11/12/2019 22:00 455.93 0.00 -- 19.4 37.0
11/12/2019 21:00 455.93 0.00 -- 20.6 37.8
11/12/2019 20:00 455.94 0.00 -- 22.0 37.3
11/12/2019 19:00 455.93 0.00 -- 23.3 37.5
11/12/2019 18:00 455.94 0.00 -- 24.4 38.3
11/12/2019 17:00 455.94 0.00 -- 25.9 39.5
11/12/2019 16:00 455.95 0.00 -- 26.5 39.3
11/12/2019 15:00 455.95 0.00 -- 28.8 39.0
11/12/2019 14:00 455.94 0.00 -- 31.2 38.0
11/12/2019 13:00 455.94 0.00 -- 31.6 38.0
11/12/2019 12:00 455.94 0.00 -- 31.4 38.0
11/12/2019 11:00 455.94 0.00 -- 31.0 38.0
11/12/2019 10:00 455.94 0.00 -- 30.4 37.3
11/12/2019 09:00 455.93 0.00 -- 29.6 37.0
11/12/2019 08:00 455.93 0.00 -- 29.6 37.0
11/12/2019 07:00 455.93 0.00 -- 29.6 37.0
11/12/2019 06:00 455.93 0.00 -- 28.7 37.0
11/12/2019 05:00 455.93 0.00 -- 29.2 37.0
11/12/2019 04:00 455.93 0.00 -- 28.9 37.0
11/12/2019 03:00 455.93 0.00 -- 29.3 37.0
11/12/2019 02:00 455.93 0.00 -- 28.3 37.0
11/12/2019 01:00 455.93 0.00 -- 28.6 37.0
11/12/2019 00:00 455.93 0.00 0.00 28.6 36.8
11/11/2019 23:00 455.93 0.00 -- 28.7 37.0
11/11/2019 22:00 455.93 0.00 -- 28.8 37.0
11/11/2019 21:00 455.92 0.00 -- 29.5 36.8
11/11/2019 20:00 455.93 0.00 -- 31.1 36.8
11/11/2019 19:00 455.92 0.00 -- 31.5 36.0
11/11/2019 18:00 455.92 0.00 -- 32.4 36.0
11/11/2019 17:00 455.91 0.00 -- 33.0 36.0
11/11/2019 16:00 455.91 0.00 -- 35.2 36.0
11/11/2019 15:00 455.91 0.00 -- 38.5 35.5
11/11/2019 14:00 455.91 0.00 -- 39.3 35.8
11/11/2019 13:00 455.91 0.00 -- 39.3 35.8
11/11/2019 12:00 455.91 0.00 -- 39.2 35.8
11/11/2019 11:00 455.91 0.00 -- 39.7 36.0
11/11/2019 10:00 455.91 0.00 -- 39.7 36.0
11/11/2019 09:00 455.92 0.00 -- 38.8 36.0
11/11/2019 08:00 455.92 0.00 -- 37.7 36.0
11/11/2019 07:00 455.92 0.00 -- 37.8 36.0
11/11/2019 06:00 455.92 0.00 -- 37.0 36.0
11/11/2019 05:00 455.92 0.00 -- 41.2 36.3
11/11/2019 04:00 455.92 0.00 -- 41.9 36.8
11/11/2019 03:00 455.93 0.00 -- 42.0 37.0
11/11/2019 02:00 455.92 0.00 -- 36.9 36.8
11/11/2019 01:00 455.93 0.00 -- 36.0 37.0
11/11/2019 00:00 455.93 0.00 0.00 35.1 37.0
11/10/2019 23:00 455.93 0.00 -- 36.8 37.0
11/10/2019 22:00 455.93 0.00 -- 40.7 36.8
11/10/2019 21:00 455.93 0.00 -- 42.8 37.0
11/10/2019 20:00 455.93 0.00 -- 43.1 37.3
11/10/2019 19:00 455.93 0.00 -- 43.7 37.0
11/10/2019 18:00 455.92 0.00 -- 42.0 37.0
11/10/2019 17:00 455.93 0.00 -- 44.2 37.0
11/10/2019 16:00 455.92 0.00 -- 44.9 37.3
11/10/2019 15:00 455.94 0.00 -- 44.3 37.8
11/10/2019 14:00 455.94 0.00 -- 44.6 37.5
11/10/2019 13:00 455.94 0.00 -- 41.8 38.3
11/10/2019 12:00 455.94 0.00 -- 41.8 37.8
11/10/2019 11:00 455.94 0.00 -- 38.9 38.0
11/10/2019 10:00 455.94 0.00 -- 36.1 38.0
11/10/2019 09:00 455.94 0.00 -- 32.9 37.8
11/10/2019 08:00 455.94 0.00 -- 32.4 38.0
11/10/2019 07:00 455.94 0.00 -- 32.1 38.0
11/10/2019 06:00 455.94 0.00 -- 32.2 38.0
11/10/2019 05:00 455.94 0.00 -- 32.3 37.8
11/10/2019 04:00 455.94 0.00 -- 32.3 38.0
11/10/2019 03:00 455.94 0.00 -- 32.1 38.0
11/10/2019 02:00 455.94 0.00 -- 30.9 38.0
11/10/2019 01:00 455.95 0.00 -- 31.0 38.3
11/10/2019 00:00 455.94 0.00 0.00 28.1 38.0
11/09/2019 23:00 455.95 0.00 -- 26.8 38.3
11/09/2019 22:00 455.95 0.00 -- 26.3 38.0
11/09/2019 21:00 455.95 0.00 -- 26.0 39.0
11/09/2019 20:00 455.95 0.00 -- 27.5 39.0
11/09/2019 19:00 455.95 0.00 -- 29.0 39.0
11/09/2019 18:00 455.95 0.00 -- 33.8 39.0
11/09/2019 17:00 455.96 0.00 -- 37.3 39.3
11/09/2019 16:00 455.96 0.00 -- 37.9 39.8
11/09/2019 15:00 455.96 0.00 -- 38.8 39.5
11/09/2019 14:00 455.96 0.00 -- 38.4 39.3
11/09/2019 13:00 455.96 0.00 -- 38.7 39.5
11/09/2019 12:00 455.96 0.00 -- 34.7 39.8
11/09/2019 11:00 455.96 0.00 -- 31.2 40.0
11/09/2019 10:00 455.97 0.00 -- 29.7 40.0
11/09/2019 09:00 455.96 0.00 -- 23.5 40.0
11/09/2019 08:00 455.97 0.00 -- 19.7 40.0
11/09/2019 07:00 455.96 0.00 -- 21.4 40.0
11/09/2019 06:00 455.97 0.00 -- 23.9 40.8
11/09/2019 05:00 455.98 0.00 -- 25.1 41.0
11/09/2019 04:00 455.97 0.00 -- 26.6 41.0
11/09/2019 03:00 455.98 0.00 -- 26.8 41.0
11/09/2019 02:00 455.98 0.00 -- 27.7 40.8
11/09/2019 01:00 455.98 0.00 -- 28.1 41.3
11/09/2019 00:00 455.98 0.00 0.00 28.7 41.5
11/08/2019 23:00 455.99 0.00 -- 28.3 41.5
11/08/2019 22:00 455.99 0.00 -- 28.2 42.0
11/08/2019 21:00 455.99 0.00 -- 28.4 42.0
11/08/2019 20:00 455.99 0.00 -- 28.6 42.3
11/08/2019 19:00 456.00 0.00 -- 28.3 42.8
11/08/2019 18:00 455.99 0.00 -- 27.7 43.0
11/08/2019 17:00 456.00 0.00 -- 28.6 42.8
11/08/2019 16:00 455.99 0.00 -- 28.3 42.3
11/08/2019 15:00 455.98 0.00 -- 30.6 41.8
11/08/2019 14:00 456.00 0.00 -- 29.3 43.0
11/08/2019 13:00 456.00 0.00 -- 30.8 43.0
11/08/2019 12:00 455.99 0.00 -- 27.7 43.0
11/08/2019 11:00 456.01 0.00 -- 29.9 43.8
11/08/2019 10:00 456.01 0.00 -- 31.4 43.8
11/08/2019 09:00 456.01 0.00 -- 27.1 43.3
11/08/2019 08:00 456.00 0.00 -- 25.8 43.0
11/08/2019 07:00 456.00 0.00 -- 26.9 43.0
11/08/2019 06:00 456.00 0.00 -- 25.2 43.5
11/08/2019 05:00 456.00 0.00 -- 26.7 43.8
11/08/2019 04:00 456.01 0.00 -- 29.0 44.0
11/08/2019 03:00 456.01 0.00 -- 30.5 44.0
11/08/2019 02:00 456.01 0.00 -- 32.4 44.0
11/08/2019 01:00 456.01 0.00 -- 33.8 44.3
11/08/2019 00:00 456.02 0.00 0.00 34.9 44.0
11/07/2019 23:00 456.02 0.00 -- 35.6 45.0
11/07/2019 22:00 456.02 0.00 -- 37.4 44.3
11/07/2019 21:00 456.02 0.00 -- 38.3 45.0
11/07/2019 20:00 456.02 0.00 -- 38.6 44.8
11/07/2019 19:00 456.02 0.00 -- 39.4 44.8
11/07/2019 18:00 456.02 0.00 -- 39.4 45.0
11/07/2019 17:00 456.02 0.00 -- 39.7 45.3
11/07/2019 16:00 456.03 0.00 -- 40.0 46.0
11/07/2019 15:00 456.03 0.00 -- 40.7 45.8
11/07/2019 14:00 456.03 0.00 -- 42.2 46.0
11/07/2019 13:00 456.03 0.00 -- 42.1 46.3
11/07/2019 12:00 456.03 0.00 -- 43.5 45.8
11/07/2019 11:00 456.04 0.00 -- 41.3 46.0
11/07/2019 10:00 456.04 0.00 -- 40.8 46.3
11/07/2019 09:00 456.04 0.00 -- 35.6 46.0
11/07/2019 08:00 456.04 0.00 -- 33.7 46.0
11/07/2019 07:00 456.04 0.00 -- 35.0 46.8
11/07/2019 06:00 456.04 0.00 -- 36.5 46.8
11/07/2019 05:00 456.05 0.00 -- 39.0 47.0
11/07/2019 04:00 456.05 0.00 -- 37.0 47.0
11/07/2019 03:00 456.05 0.00 -- 33.8 47.8
11/07/2019 02:00 456.06 0.00 -- 30.3 48.0
11/07/2019 01:00 456.06 0.00 -- 29.2 48.0
11/07/2019 00:00 456.06 0.00 0.00 30.3 48.3
11/06/2019 23:00 456.07 0.00 -- 29.3 49.0
11/06/2019 22:00 456.07 0.00 -- 30.6 49.0
11/06/2019 21:00 456.07 0.00 -- 30.9 49.5
11/06/2019 20:00 456.08 0.00 -- 32.6 50.0
11/06/2019 19:00 456.08 0.00 -- 35.9 50.0
11/06/2019 18:00 456.09 0.00 -- 42.3 50.5
11/06/2019 17:00 456.09 0.00 -- 46.7 51.0
11/06/2019 16:00 456.10 0.00 -- 47.7 51.8
11/06/2019 15:00 456.10 0.00 -- 47.4 52.8
11/06/2019 14:00 456.12 0.00 -- 47.1 52.8
11/06/2019 13:00 456.12 0.00 -- 46.6 53.8
11/06/2019 12:00 456.11 0.00 -- 45.6 53.5
11/06/2019 11:00 456.12 0.00 -- 44.9 53.0
11/06/2019 10:00 456.12 0.00 -- 43.2 54.8
11/06/2019 09:00 456.13 0.00 -- 40.1 54.3
11/06/2019 08:00 456.14 0.00 -- 34.7 55.5
11/06/2019 07:00 456.14 0.00 -- 35.1 56.0
11/06/2019 06:00 456.15 0.00 -- 33.4 56.5
11/06/2019 05:00 456.16 0.00 -- 34.5 57.5
11/06/2019 04:00 456.16 0.00 -- 35.2 58.3
11/06/2019 03:00 456.17 0.00 -- 37.4 59.0
11/06/2019 02:00 456.18 0.00 -- 39.0 60.0
11/06/2019 01:00 456.20 0.00 -- 43.1 61.0
11/06/2019 00:00 456.20 0.00 0.00 44.5 61.5
11/05/2019 23:00 456.22 0.00 -- 47.7 63.3
11/05/2019 22:00 456.22 0.00 -- 46.1 63.8
11/05/2019 21:00 456.23 0.00 -- 44.5 64.5
11/05/2019 20:00 456.24 0.00 -- 45.8 66.0
11/05/2019 19:00 456.25 0.00 -- 47.1 67.0
11/05/2019 18:00 456.26 0.00 -- 47.3 68.0
11/05/2019 17:00 456.28 0.00 -- 47.8 69.3
11/05/2019 16:00 456.29 0.00 -- 47.3 70.8
11/05/2019 15:00 456.30 0.00 -- 48.4 71.5
11/05/2019 14:00 456.31 0.00 -- 50.4 72.5
11/05/2019 13:00 456.33 0.00 -- 49.9 75.0
11/05/2019 12:00 456.34 0.00 -- 48.4 77.0
11/05/2019 11:00 456.36 0.00 -- 45.3 79.5
11/05/2019 10:00 456.38 0.00 -- 41.8 81.0
11/05/2019 09:00 456.40 0.00 -- 38.8 83.8
11/05/2019 08:00 456.42 0.00 -- 37.6 88.0
11/05/2019 07:00 456.44 0.00 -- 37.0 92.0
11/05/2019 06:00 456.46 0.00 -- 36.6 94.3
11/05/2019 05:00 456.48 0.00 -- 36.0 97.8
11/05/2019 04:00 456.50 0.00 -- 35.2 101.5
11/05/2019 03:00 456.55 0.00 -- 34.8 106.5
11/05/2019 02:00 456.58 0.00 -- 35.3 111.5
11/05/2019 01:00 456.61 0.00 -- 36.2 116.0
11/05/2019 00:00 456.64 0.00 0.00 36.5 121.8
11/04/2019 23:00 456.68 0.00 -- 36.4 126.8
11/04/2019 22:00 456.72 0.00 -- 37.2 133.0
11/04/2019 21:00 456.75 0.00 -- 37.4 140.5
11/04/2019 20:00 456.80 0.00 -- 38.3 148.5
11/04/2019 19:00 456.85 0.00 -- 40.3 156.5
11/04/2019 18:00 456.91 0.00 -- 44.0 168.5
11/04/2019 17:00 456.97 0.00 -- 47.6 178.5
11/04/2019 16:00 457.05 0.00 -- 47.7 109.0
11/04/2019 15:00 457.54 0.00 -- 47.8 49.8
11/04/2019 14:00 457.54 0.00 -- 49.2 50.0
11/04/2019 13:00 457.55 0.00 -- 48.2 50.0
11/04/2019 12:00 457.55 0.00 -- 47.0 50.5
11/04/2019 11:00 457.55 0.00 -- 44.5 50.0
11/04/2019 10:00 457.55 0.00 -- 37.6 50.0
11/04/2019 09:00 457.55 0.00 -- 29.3 50.8
11/04/2019 08:00 457.55 0.00 -- 26.6 51.0
11/04/2019 07:00 457.55 0.00 -- 27.4 51.0
11/04/2019 06:00 457.56 0.00 -- 26.5 51.8
11/04/2019 05:00 457.56 0.00 -- 28.0 52.0
11/04/2019 04:00 457.56 0.00 -- 27.8 52.0
11/04/2019 03:00 457.57 0.00 -- 28.8 52.8
11/04/2019 02:00 457.57 0.00 -- 30.0 53.0
11/04/2019 01:00 457.57 0.00 -- 32.2 53.0
11/04/2019 00:00 457.58 0.00 0.00 32.2 53.8
11/03/2019 23:00 457.57 0.00 -- 32.7 54.0
11/03/2019 22:00 457.58 0.00 -- 35.9 54.5
11/03/2019 21:00 457.58 0.00 -- 37.2 54.8
11/03/2019 20:00 457.59 0.00 -- 39.9 55.3
11/03/2019 19:00 457.59 0.00 -- 43.8 56.0
11/03/2019 18:00 457.59 0.00 -- 46.1 56.8
11/03/2019 17:00 457.60 0.00 -- 48.9 56.8
11/03/2019 16:00 457.61 0.00 -- 49.4 57.5
11/03/2019 15:00 457.61 0.00 -- 50.4 57.8
11/03/2019 14:00 457.61 0.00 -- 50.3 58.5
11/03/2019 13:00 457.62 0.00 -- 54.5 58.8
11/03/2019 12:00 457.61 0.00 -- 52.5 58.8
11/03/2019 11:00 457.61 0.00 -- 48.4 58.5
11/03/2019 10:00 457.62 0.00 -- 39.7 59.0
11/03/2019 09:00 457.62 0.00 -- 30.4 59.8
11/03/2019 08:00 457.63 0.00 -- 30.9 60.0
11/03/2019 07:00 457.63 0.00 -- 30.2 61.0
11/03/2019 06:00 457.63 0.00 -- 30.5 61.3
11/03/2019 05:00 457.64 0.00 -- 30.4 62.0
11/03/2019 04:00 457.64 0.00 -- 30.9 62.0
11/03/2019 03:00 457.65 0.00 -- 32.6 62.5
11/03/2019 02:00 457.65 0.00 -- 33.7 63.0
11/03/2019 01:00 457.65 0.00 -- 34.7 63.8
11/03/2019 00:00 457.66 0.00 0.00 36.4 64.8
11/02/2019 23:00 457.67 0.00 -- 39.5 66.0
11/02/2019 22:00 457.67 0.00 -- 40.4 66.0
11/02/2019 21:00 457.67 0.00 -- 41.0 66.3
11/02/2019 20:00 457.68 0.00 -- 43.4 67.5
11/02/2019 19:00 457.69 0.00 -- 44.1 68.0
11/02/2019 18:00 457.69 0.00 -- 48.9 73.3
11/02/2019 17:00 457.69 0.00 -- 50.8 75.5
11/02/2019 16:00 457.70 0.00 -- 50.3 74.0
11/02/2019 15:00 457.70 0.00 -- 49.3 76.5
11/02/2019 14:00 457.71 0.00 -- 46.2 77.8
11/02/2019 13:00 457.72 0.00 -- 45.6 78.8
11/02/2019 12:00 457.72 0.00 -- 44.3 79.8
11/02/2019 11:00 457.73 0.00 -- 41.3 80.0
11/02/2019 10:00 457.72 0.00 -- 33.1 80.3
11/02/2019 09:00 457.73 0.00 -- 28.9 81.0
11/02/2019 08:00 457.74 0.00 -- 29.8 81.8
11/02/2019 07:00 457.74 0.00 -- 30.9 83.3
11/02/2019 06:00 457.74 0.00 -- 31.7 83.3
11/02/2019 05:00 457.75 0.00 -- 33.3 84.0
11/02/2019 04:00 457.76 0.00 -- 36.7 85.5
11/02/2019 03:00 457.77 0.00 -- 37.9 86.5
11/02/2019 02:00 457.77 0.00 -- 39.2 88.5
11/02/2019 01:00 457.78 0.00 -- 40.0 89.5
11/02/2019 00:00 457.80 0.00 0.00 41.6 91.8
11/01/2019 23:00 457.79 0.00 -- 42.4 92.0
11/01/2019 22:00 457.80 0.00 -- 43.9 92.0
11/01/2019 21:00 457.80 0.00 -- 43.5 92.3
11/01/2019 20:00 457.81 0.00 -- 45.5 93.8
11/01/2019 19:00 457.81 0.00 -- 47.0 94.8
11/01/2019 18:00 457.82 0.00 -- 49.7 95.3
11/01/2019 17:00 457.83 0.00 -- 51.8 96.0
11/01/2019 16:00 457.83 0.00 -- 51.9 97.0
11/01/2019 15:00 457.82 0.00 -- 52.0 96.5
11/01/2019 14:00 457.82 0.00 -- 52.0 96.5
11/01/2019 13:00 457.82 0.00 -- 52.5 98.8
11/01/2019 12:00 457.84 0.00 -- 50.6 97.5
11/01/2019 11:00 457.84 0.00 -- 49.5 97.0
11/01/2019 10:00 457.83 0.00 -- 46.5 96.5
11/01/2019 09:00 457.85 0.00 -- 49.5 98.3
11/01/2019 08:00 457.82 0.00 -- 55.5 95.0
11/01/2019 07:00 457.83 0.00 -- 58.4 93.3
11/01/2019 06:00 457.82 0.00 -- 64.0 94.3
11/01/2019 05:00 457.79 0.00 -- 69.4 91.0
11/01/2019 04:00 457.78 0.00 -- 68.5 89.0
11/01/2019 03:00 457.78 0.00 -- 70.0 86.8
11/01/2019 02:00 457.78 0.00 -- 69.7 86.5
11/01/2019 01:00 457.74 0.00 -- 68.4 85.0
11/01/2019 00:00 457.76 0.00 0.00 68.4 84.0
10/31/2019 23:00 457.73 0.00 -- 67.9 81.8
10/31/2019 22:00 457.72 0.00 -- 67.2 78.5
10/31/2019 21:00 457.71 0.00 -- 67.3 77.3
10/31/2019 20:00 457.70 0.00 -- 66.8 74.3
10/31/2019 19:00 457.69 0.00 -- 65.0 68.8
10/31/2019 18:00 457.68 0.00 -- 59.4 66.0
10/31/2019 17:00 457.66 0.00 -- 59.1 64.3
10/31/2019 16:00 457.65 0.00 -- 58.8 62.5
10/31/2019 15:00 457.63 0.00 -- 57.8 60.5
10/31/2019 14:00 457.62 0.00 -- 57.3 59.3
10/31/2019 13:00 457.62 0.00 -- 56.7 58.3
10/31/2019 12:00 457.60 0.00 -- 55.3 56.8
10/31/2019 11:00 457.59 0.00 -- 54.8 55.8
10/31/2019 10:00 457.59 0.00 -- 54.2 55.3
10/31/2019 09:00 457.58 0.00 -- 54.3 53.5
10/31/2019 08:00 457.56 0.00 -- 54.0 51.8
10/31/2019 07:00 457.56 0.00 -- 54.4 51.0
10/31/2019 06:00 457.56 0.00 -- 54.3 51.8
10/31/2019 05:00 457.56 0.00 -- 54.2 51.5
10/31/2019 04:00 457.56 0.00 -- 54.3 52.0
10/31/2019 03:00 457.56 0.00 -- 54.0 52.0
10/31/2019 02:00 457.56 0.00 -- 54.1 52.0
10/31/2019 01:00 457.56 0.00 -- 54.2 52.0
10/31/2019 00:00 457.56 0.00 0.00 54.5 52.8
10/30/2019 23:00 457.57 0.00 -- 54.8 53.0
10/30/2019 22:00 457.57 0.00 -- 55.4 53.3
10/30/2019 21:00 457.58 0.00 -- 56.6 54.0
10/30/2019 20:00 457.58 0.00 -- 56.8 54.0
10/30/2019 19:00 457.58 0.00 -- 58.2 55.0
10/30/2019 18:00 457.59 0.00 -- 62.1 55.0
10/30/2019 17:00 457.59 0.00 -- 62.8 55.0
10/30/2019 16:00 457.59 0.00 -- 62.0 55.0
10/30/2019 15:00 457.59 0.00 -- 61.8 55.5
10/30/2019 14:00 457.59 0.00 -- 63.1 56.0
10/30/2019 13:00 457.59 0.00 -- 57.3 56.5
10/30/2019 12:00 457.60 0.00 -- 56.8 57.0
10/30/2019 11:00 457.60 0.00 -- 48.4 57.0
10/30/2019 10:00 457.61 0.00 -- 47.3 57.8
10/30/2019 09:00 457.61 0.00 -- 47.0 58.3
10/30/2019 08:00 457.61 0.00 -- 47.2 58.8
10/30/2019 07:00 457.62 0.00 -- 47.7 59.0
10/30/2019 06:00 457.62 0.00 -- 47.9 60.0
10/30/2019 05:00 457.63 0.00 -- 49.6 60.3
10/30/2019 04:00 457.63 0.00 -- 50.9 61.5
10/30/2019 03:00 457.64 0.00 -- 51.0 62.0
10/30/2019 02:00 457.65 0.00 -- 51.0 62.8
10/30/2019 01:00 457.65 0.00 -- 51.1 63.0
10/30/2019 00:00 457.65 0.00 0.00 51.0 63.8
10/29/2019 23:00 457.65 0.00 -- 50.9 64.3
10/29/2019 22:00 457.66 0.00 -- 50.7 65.0
10/29/2019 21:00 457.67 0.00 -- 50.4 66.0
10/29/2019 20:00 457.67 0.00 -- 50.6 66.3
10/29/2019 19:00 457.68 0.00 -- 51.1 67.0
10/29/2019 18:00 457.68 0.00 -- 52.3 69.8
10/29/2019 17:00 457.68 0.00 -- 53.1 73.5
10/29/2019 16:00 457.68 0.00 -- 54.0 71.5
10/29/2019 15:00 457.69 0.00 -- 53.7 73.5
10/29/2019 14:00 457.69 0.00 -- 52.7 76.0
10/29/2019 13:00 457.71 0.00 -- 52.2 77.8
10/29/2019 12:00 457.71 0.00 -- 50.2 78.3
10/29/2019 11:00 457.72 0.00 -- 49.0 79.8
10/29/2019 10:00 457.72 0.00 -- 47.8 80.0
10/29/2019 09:00 457.72 0.00 -- 46.9 80.5
10/29/2019 08:00 457.73 0.00 -- 46.6 81.0
10/29/2019 07:00 457.74 0.00 -- 46.7 82.3
10/29/2019 06:00 457.74 0.00 -- 46.6 83.0
10/29/2019 05:00 457.75 0.00 -- 47.1 84.3
10/29/2019 04:00 457.75 0.00 -- 47.0 84.0
10/29/2019 03:00 457.76 0.00 -- 47.2 85.5
10/29/2019 02:00 457.77 0.00 -- 47.3 86.5
10/29/2019 01:00 457.76 0.00 -- 47.7 86.5
10/29/2019 00:00 457.77 0.00 0.00 48.3 87.8
10/28/2019 23:00 457.77 0.00 -- 48.3 87.3
10/28/2019 22:00 457.77 0.00 -- 48.5 87.8
10/28/2019 21:00 457.78 0.00 -- 48.8 88.3
10/28/2019 20:00 457.77 0.00 -- 49.2 88.5
10/28/2019 19:00 457.78 0.00 -- 50.1 88.8
10/28/2019 18:00 457.78 0.00 -- 50.9 88.0
10/28/2019 17:00 457.78 0.00 -- 51.3 87.5
10/28/2019 16:00 457.78 0.00 -- 51.7 88.0
10/28/2019 15:00 457.77 0.00 -- 51.8 87.3
10/28/2019 14:00 457.76 0.00 -- 50.7 86.3
10/28/2019 13:00 457.76 0.00 -- 50.3 85.0
10/28/2019 12:00 457.76 0.00 -- 48.8 85.5
10/28/2019 11:00 457.76 0.00 -- 47.7 84.5
10/28/2019 10:00 457.74 0.00 -- 45.8 82.0
10/28/2019 09:00 457.73 0.00 -- 45.4 80.5
10/28/2019 08:00 457.72 0.00 -- 45.0 78.3
10/28/2019 07:00 457.70 0.02 -- 44.8 75.5
10/28/2019 06:00 457.69 0.00 -- 44.6 69.3
10/28/2019 05:00 457.67 0.01 -- 44.4 65.3
10/28/2019 04:00 457.65 0.00 -- 44.3 62.8
10/28/2019 03:00 457.64 0.00 -- 44.1 60.3
10/28/2019 02:00 457.61 0.00 -- 44.4 57.3
10/28/2019 01:00 457.59 0.02 -- 44.3 54.3
10/28/2019 00:00 457.57 0.03 0.05 44.4 52.0
10/27/2019 23:00 457.55 0.02 -- 43.9 48.8
10/27/2019 22:00 457.52 0.07 -- 43.6 46.0
10/27/2019 21:00 457.50 0.05 -- 43.5 43.8
10/27/2019 20:00 457.48 0.03 -- 43.2 41.0
10/27/2019 19:00 457.46 0.10 -- 43.2 39.0
10/27/2019 18:00 457.44 0.18 -- 42.4 36.8
10/27/2019 17:00 457.42 0.06 -- 42.1 35.0
10/27/2019 16:00 457.41 0.16 -- 41.3 33.8
10/27/2019 15:00 457.40 0.15 -- 41.0 32.3
10/27/2019 14:00 457.38 0.15 -- 40.7 31.0
10/27/2019 13:00 457.37 0.12 -- 40.2 30.0
10/27/2019 12:00 457.36 0.12 -- 39.1 29.3
10/27/2019 11:00 457.36 0.04 -- 38.5 28.5
10/27/2019 10:00 457.35 0.01 -- 37.7 28.8
10/27/2019 09:00 457.35 0.01 -- 36.8 28.8
10/27/2019 08:00 457.35 0.00 -- 37.0 28.8
10/27/2019 07:00 457.36 0.00 -- 35.9 29.0
10/27/2019 06:00 457.36 0.00 -- 36.0 29.0
10/27/2019 05:00 457.36 0.00 -- 37.2 29.0
10/27/2019 04:00 457.36 0.00 -- 35.5 29.3
10/27/2019 03:00 457.36 0.00 -- 34.6 29.8
10/27/2019 02:00 457.37 0.00 -- 33.3 30.0
10/27/2019 01:00 457.37 0.00 -- 34.8 30.0
10/27/2019 00:00 457.37 0.00 1.30 37.2 30.5
10/26/2019 23:00 457.38 0.00 -- 38.1 31.0
10/26/2019 22:00 457.38 0.00 -- 40.4 31.3
10/26/2019 21:00 457.38 0.00 -- 42.2 31.3
10/26/2019 20:00 457.38 0.00 -- 44.7 32.0
10/26/2019 19:00 457.39 0.00 -- 49.2 32.0
10/26/2019 18:00 457.39 0.00 -- 56.7 32.8
10/26/2019 17:00 457.39 0.00 -- 55.9 33.0
10/26/2019 16:00 457.40 0.00 -- 57.1 33.5
10/26/2019 15:00 457.41 0.00 -- 57.1 33.8
10/26/2019 14:00 457.40 0.00 -- 53.9 33.5
10/26/2019 13:00 457.41 0.00 -- 53.7 34.0
10/26/2019 12:00 457.41 0.00 -- 52.1 34.3
10/26/2019 11:00 457.41 0.00 -- 50.9 34.0
10/26/2019 10:00 457.41 0.00 -- 44.4 34.0
10/26/2019 09:00 457.41 0.00 -- 42.7 34.3
10/26/2019 08:00 457.41 0.00 -- 45.0 34.8
10/26/2019 07:00 457.41 0.01 -- 45.5 35.0
10/26/2019 06:00 457.42 0.00 -- 46.2 35.0
10/26/2019 05:00 457.42 0.00 -- 45.8 35.3
10/26/2019 04:00 457.42 0.00 -- 46.3 36.0
10/26/2019 03:00 457.43 0.04 -- 46.8 36.0
10/26/2019 02:00 457.43 0.01 -- 47.1 36.0
10/26/2019 01:00 457.43 0.01 -- 46.7 36.5
10/26/2019 00:00 457.43 0.02 0.07 47.1 37.0
10/25/2019 23:00 457.43 0.00 -- 47.5 37.0
10/25/2019 22:00 457.44 0.00 -- 48.6 37.5
10/25/2019 21:00 457.44 0.00 -- 49.6 38.0
10/25/2019 20:00 457.45 0.00 -- 50.8 38.3
10/25/2019 19:00 457.45 0.00 -- 51.7 39.0
10/25/2019 18:00 457.45 0.00 -- 53.5 39.0
10/25/2019 17:00 457.46 0.00 -- 54.6 40.0
10/25/2019 16:00 457.46 0.00 -- 54.6 40.8
10/25/2019 15:00 457.47 0.00 -- 53.8 41.0
10/25/2019 14:00 457.47 0.00 -- 53.0 41.3
10/25/2019 13:00 457.48 0.00 -- 52.1 42.0
10/25/2019 12:00 457.48 0.00 -- 50.5 42.3
10/25/2019 11:00 457.48 0.00 -- 48.0 43.0
10/25/2019 10:00 457.49 0.00 -- 46.0 43.8
10/25/2019 09:00 457.50 0.00 -- 45.5 44.0
10/25/2019 08:00 457.50 0.00 -- 45.8 45.0
10/25/2019 07:00 457.51 0.00 -- 45.9 45.5
10/25/2019 06:00 457.51 0.00 -- 43.8 46.0
10/25/2019 05:00 457.52 0.00 -- 43.4 46.8
10/25/2019 04:00 457.52 0.00 -- 42.5 47.3
10/25/2019 03:00 457.53 0.00 -- 45.4 48.3
10/25/2019 02:00 457.53 0.00 -- 46.3 49.0
10/25/2019 01:00 457.54 0.00 -- 46.5 49.5
10/25/2019 00:00 457.54 0.00 0.02 46.6 50.5
10/24/2019 23:00 457.55 0.00 -- 48.1 51.3
10/24/2019 22:00 457.56 0.00 -- 51.7 51.8
10/24/2019 21:00 457.57 0.00 -- 56.6 52.8
10/24/2019 20:00 457.57 0.00 -- 59.1 53.5
10/24/2019 19:00 457.58 0.00 -- 62.9 54.5
10/24/2019 18:00 457.58 0.00 -- 66.0 54.8
10/24/2019 17:00 457.59 0.00 -- 67.9 56.3
10/24/2019 16:00 457.60 0.00 -- 65.2 57.5
10/24/2019 15:00 457.62 0.00 -- 62.9 58.3
10/24/2019 14:00 457.61 0.00 -- 61.3 56.3
10/24/2019 13:00 457.62 0.00 -- 58.1 59.5
10/24/2019 12:00 457.62 0.00 -- 56.2 60.0
10/24/2019 11:00 457.63 0.00 -- 51.9 59.5
10/24/2019 10:00 457.62 0.00 -- 48.4 60.0
10/24/2019 09:00 457.63 0.00 -- 42.1 60.8
10/24/2019 08:00 457.63 0.00 -- 39.9 61.0
10/24/2019 07:00 457.63 0.00 -- 37.5 60.8
10/24/2019 06:00 457.63 0.00 -- 37.0 61.5
10/24/2019 05:00 457.64 0.00 -- 37.6 62.0
10/24/2019 04:00 457.64 0.00 -- 39.0 62.0
10/24/2019 03:00 457.64 0.00 -- 42.1 62.0
10/24/2019 02:00 457.64 0.00 -- 46.1 61.8
10/24/2019 01:00 457.64 0.00 -- 48.8 61.5
10/24/2019 00:00 457.63 0.00 0.00 50.5 60.5
10/23/2019 23:00 457.63 0.00 -- 54.8 61.0
10/23/2019 22:00 457.62 0.00 -- 47.4 59.0
10/23/2019 21:00 457.62 0.00 -- 49.5 58.3
10/23/2019 20:00 457.61 0.00 -- 53.1 57.8
10/23/2019 19:00 457.60 0.00 -- 58.8 56.5
10/23/2019 18:00 457.60 0.00 -- 62.3 55.8
10/23/2019 17:00 457.58 0.00 -- 63.8 53.0
10/23/2019 16:00 457.56 0.00 -- 63.0 50.5
10/23/2019 15:00 457.55 0.00 -- 62.8 48.5
10/23/2019 14:00 457.52 0.00 -- 61.6 46.3
10/23/2019 13:00 457.50 0.00 -- 59.7 43.5
10/23/2019 12:00 457.47 0.00 -- 53.4 41.0
10/23/2019 11:00 457.46 0.01 -- 51.6 38.8
10/23/2019 10:00 457.44 0.11 -- 50.5 36.0
10/23/2019 09:00 457.41 0.09 -- 50.0 33.8
10/23/2019 08:00 457.39 0.07 -- 49.8 31.8
10/23/2019 07:00 457.37 0.09 -- 49.6 30.0
10/23/2019 06:00 457.36 0.08 -- 49.3 28.5
10/23/2019 05:00 457.35 0.26 -- 49.3 26.8
10/23/2019 04:00 457.32 0.19 -- 49.4 24.5
10/23/2019 03:00 457.30 0.20 -- 49.6 22.5
10/23/2019 02:00 457.28 0.22 -- 49.6 20.8
10/23/2019 01:00 457.26 0.09 -- 49.8 19.3
10/23/2019 00:00 457.25 0.04 1.41 49.8 19.0
10/22/2019 23:00 457.25 0.01 -- 50.0 18.3
10/22/2019 22:00 457.25 0.00 -- 51.0 18.5
10/22/2019 21:00 457.25 0.00 -- 52.7 19.0
10/22/2019 20:00 457.25 0.00 -- 53.7 19.0
10/22/2019 19:00 457.25 0.00 -- 54.4 19.0
10/22/2019 18:00 457.25 0.00 -- 55.1 18.8
10/22/2019 17:00 457.26 0.00 -- 57.2 18.8
10/22/2019 16:00 457.25 0.00 -- 57.8 19.0
10/22/2019 15:00 457.26 0.00 -- 58.2 19.0
10/22/2019 14:00 457.26 0.00 -- 57.5 19.0
10/22/2019 13:00 457.26 0.00 -- 57.2 19.0
10/22/2019 12:00 457.26 0.00 -- 54.7 19.0
10/22/2019 11:00 457.26 0.00 -- 46.2 19.3
10/22/2019 10:00 457.26 0.00 -- 42.2 19.0
10/22/2019 09:00 457.26 0.00 -- 40.1 19.3
10/22/2019 08:00 457.26 0.00 -- 38.6 20.0
10/22/2019 07:00 457.26 0.00 -- 39.0 20.0
10/22/2019 06:00 457.26 0.00 -- 38.2 20.0
10/22/2019 05:00 457.27 0.00 -- 39.0 20.0
10/22/2019 04:00 457.27 0.00 -- 37.7 20.0
10/22/2019 03:00 457.27 0.00 -- 37.8 20.3
10/22/2019 02:00 457.27 0.00 -- 39.3 21.0
10/22/2019 01:00 457.27 0.00 -- 40.1 21.0
10/22/2019 00:00 457.28 0.00 0.05 41.6 21.0
10/21/2019 23:00 457.28 0.00 -- 43.4 21.0
10/21/2019 22:00 457.28 0.00 -- 45.5 21.0
10/21/2019 21:00 457.28 0.00 -- 48.3 21.3
10/21/2019 20:00 457.28 0.00 -- 51.4 21.0
10/21/2019 19:00 457.29 0.00 -- 57.4 22.0
10/21/2019 18:00 457.28 0.00 -- 68.0 22.0
10/21/2019 17:00 457.28 0.00 -- 68.7 21.8
10/21/2019 16:00 457.29 0.00 -- 65.8 22.0
10/21/2019 15:00 457.29 0.00 -- 65.1 22.0
10/21/2019 14:00 457.29 0.00 -- 64.0 22.0
10/21/2019 13:00 457.29 0.00 -- 59.8 22.0
10/21/2019 12:00 457.29 0.00 -- 53.9 22.0
10/21/2019 11:00 457.29 0.00 -- 44.7 22.0
10/21/2019 10:00 457.29 0.00 -- 43.6 22.0
10/21/2019 09:00 457.29 0.00 -- 42.5 22.5
10/21/2019 08:00 457.29 0.00 -- 42.9 22.8
10/21/2019 07:00 457.29 0.00 -- 43.6 23.0
10/21/2019 06:00 457.30 0.00 -- 44.1 23.0
10/21/2019 05:00 457.30 0.00 -- 45.0 23.0
10/21/2019 04:00 457.30 0.00 -- 45.1 23.0
10/21/2019 03:00 457.30 0.00 -- 46.3 24.0
10/21/2019 02:00 457.31 0.00 -- 46.2 24.0
10/21/2019 01:00 457.31 0.00 -- 46.4 24.0
10/21/2019 00:00 457.31 0.02 0.00 46.4 24.3
10/20/2019 23:00 457.31 0.01 -- 46.3 24.0
10/20/2019 22:00 457.31 0.00 -- 47.6 24.3
10/20/2019 21:00 457.32 0.00 -- 48.0 25.0
10/20/2019 20:00 457.32 0.00 -- 49.4 25.0
10/20/2019 19:00 457.32 0.00 -- 50.9 25.0
10/20/2019 18:00 457.32 0.00 -- 52.8 25.5
10/20/2019 17:00 457.33 0.00 -- 53.7 26.0
10/20/2019 16:00 457.33 0.00 -- 54.4 26.0
10/20/2019 15:00 457.33 0.00 -- 54.0 26.0
10/20/2019 14:00 457.33 0.00 -- 53.0 26.3
10/20/2019 13:00 457.34 0.00 -- 49.0 27.0
10/20/2019 12:00 457.34 0.00 -- 43.2 27.0
10/20/2019 11:00 457.34 0.00 -- 39.3 27.0
10/20/2019 10:00 457.34 0.00 -- 34.9 27.5
10/20/2019 09:00 457.35 0.00 -- 32.7 28.0
10/20/2019 08:00 457.35 0.00 -- 31.7 28.0
10/20/2019 07:00 457.36 0.00 -- 31.4 29.0
10/20/2019 06:00 457.36 0.00 -- 30.4 29.0
10/20/2019 05:00 457.36 0.00 -- 32.3 29.8
10/20/2019 04:00 457.37 0.00 -- 32.3 30.0
10/20/2019 03:00 457.37 0.00 -- 33.7 30.5
10/20/2019 02:00 457.38 0.00 -- 33.4 31.0
10/20/2019 01:00 457.38 0.00 -- 34.5 31.5
10/20/2019 00:00 457.39 0.00 0.03 35.6 32.0
10/19/2019 23:00 457.39 0.00 -- 37.8 32.5
10/19/2019 22:00 457.40 0.00 -- 39.7 33.0
10/19/2019 21:00 457.40 0.00 -- 41.8 33.8
10/19/2019 20:00 457.41 0.00 -- 45.8 34.5
10/19/2019 19:00 457.41 0.00 -- 52.7 35.0
10/19/2019 18:00 457.42 0.00 -- 57.6 35.8
10/19/2019 17:00 457.43 0.00 -- 58.7 36.8
10/19/2019 16:00 457.43 0.00 -- 59.0 37.0
10/19/2019 15:00 457.44 0.00 -- 56.9 37.8
10/19/2019 14:00 457.44 0.00 -- 54.0 38.3
10/19/2019 13:00 457.45 0.00 -- 53.4 39.0
10/19/2019 12:00 457.45 0.00 -- 51.2 39.8
10/19/2019 11:00 457.46 0.00 -- 48.6 40.5
10/19/2019 10:00 457.46 0.00 -- 47.0 40.8
10/19/2019 09:00 457.47 0.00 -- 40.9 41.5
10/19/2019 08:00 457.48 0.00 -- 39.4 42.3
10/19/2019 07:00 457.49 0.00 -- 40.9 43.0
10/19/2019 06:00 457.49 0.00 -- 42.4 44.0
10/19/2019 05:00 457.50 0.00 -- 44.8 44.3
10/19/2019 04:00 457.50 0.00 -- 45.8 45.0
10/19/2019 03:00 457.51 0.00 -- 45.6 46.0
10/19/2019 02:00 457.52 0.00 -- 46.0 47.8
10/19/2019 01:00 457.53 0.00 -- 46.4 48.0
10/19/2019 00:00 457.53 0.00 0.00 48.0 48.5
10/18/2019 23:00 457.53 0.00 -- 47.5 48.8
10/18/2019 22:00 457.58 0.00 -- 47.3 52.8
10/18/2019 21:00 457.56 0.00 -- 47.6 51.5
10/18/2019 20:00 457.56 0.00 -- 47.4 52.0
10/18/2019 19:00 457.57 0.00 -- 48.7 53.0
10/18/2019 18:00 457.56 0.00 -- 52.2 52.5
10/18/2019 17:00 457.58 0.00 -- 49.8 54.5
10/18/2019 16:00 457.59 0.00 -- 51.9 54.8
10/18/2019 15:00 457.59 0.00 -- 54.5 56.0
10/18/2019 14:00 457.60 0.00 -- 54.8 57.0
10/18/2019 13:00 457.60 0.00 -- 53.7 58.0
10/18/2019 12:00 457.59 0.00 -- 52.8 58.5
10/18/2019 11:00 457.62 0.00 -- 53.0 59.0
10/18/2019 10:00 457.60 0.00 -- 53.1 58.5
10/18/2019 09:00 457.62 0.00 -- 49.5 58.3
10/18/2019 08:00 457.61 0.00 -- 48.9 58.5
10/18/2019 07:00 457.61 0.00 -- 48.1 58.0
10/18/2019 06:00 457.62 0.00 -- 47.4 58.8
10/18/2019 05:00 457.61 0.00 -- 47.1 58.5
10/18/2019 04:00 457.61 0.00 -- 46.9 58.5
10/18/2019 03:00 457.62 0.00 -- 47.1 58.5
10/18/2019 02:00 457.62 0.00 -- 47.3 57.3
10/18/2019 01:00 457.60 0.00 -- 47.3 56.8
10/18/2019 00:00 457.59 0.00 0.00 47.3 55.8
10/17/2019 23:00 457.59 0.00 -- 48.5 54.0
10/17/2019 22:00 457.57 0.00 -- 47.5 52.0
10/17/2019 21:00 457.56 0.01 -- 47.9 51.0
10/17/2019 20:00 457.55 0.01 -- 48.9 49.0
10/17/2019 19:00 457.53 0.00 -- 49.8 47.5
10/17/2019 18:00 457.51 0.00 -- 48.9 45.5
10/17/2019 17:00 457.49 0.01 -- 48.6 43.0
10/17/2019 16:00 457.47 0.00 -- 48.2 40.3
10/17/2019 15:00 457.45 0.01 -- 49.4 37.8
10/17/2019 14:00 457.43 0.00 -- 50.3 35.8
10/17/2019 13:00 457.40 0.01 -- 52.2 33.5
10/17/2019 12:00 457.39 0.06 -- 52.7 30.5
10/17/2019 11:00 457.36 0.07 -- 53.1 28.5
10/17/2019 10:00 457.34 0.06 -- 51.4 26.3
10/17/2019 09:00 457.32 0.22 -- 50.2 23.5
10/17/2019 08:00 457.29 0.14 -- 49.7 21.0
10/17/2019 07:00 457.26 0.34 -- 48.9 18.5
10/17/2019 06:00 457.21 0.32 -- 48.9 14.8
10/17/2019 05:00 457.19 0.34 -- 49.0 12.5
10/17/2019 04:00 457.15 0.24 -- 49.0 10.3
10/17/2019 03:00 457.15 0.12 -- 49.1 9.8
10/17/2019 02:00 457.13 0.06 -- 48.8 9.5
10/17/2019 01:00 457.13 0.04 -- 48.7 9.0
10/17/2019 00:00 457.13 0.01 2.06 49.4 9.0
10/16/2019 23:00 457.13 0.00 -- 51.1 9.0
10/16/2019 22:00 457.13 0.00 -- 51.6 9.0
10/16/2019 21:00 457.13 0.00 -- 51.6 9.0
10/16/2019 20:00 457.13 0.00 -- 52.4 9.0
10/16/2019 19:00 457.13 0.00 -- 54.1 9.0
10/16/2019 18:00 457.13 0.00 -- 56.1 8.8
10/16/2019 17:00 457.14 0.00 -- 58.2 9.0
10/16/2019 16:00 457.13 0.00 -- 59.0 9.0
10/16/2019 15:00 457.14 0.00 -- 60.6 9.0
10/16/2019 14:00 457.14 0.00 -- 60.3 9.3
10/16/2019 13:00 457.13 0.00 -- 56.6 9.0
10/16/2019 12:00 457.13 0.00 -- 49.8 9.0
10/16/2019 11:00 457.13 0.00 -- 46.6 9.0
10/16/2019 10:00 457.13 0.00 -- 38.2 9.0
10/16/2019 09:00 457.13 0.00 -- 33.2 9.0
10/16/2019 08:00 457.13 0.00 -- 33.1 9.0
10/16/2019 07:00 457.13 0.00 -- 32.9 9.0
10/16/2019 06:00 457.13 0.00 -- 33.1 9.0
10/16/2019 05:00 457.13 0.00 -- 34.1 9.0
10/16/2019 04:00 457.13 0.00 -- 35.3 9.0
10/16/2019 03:00 457.13 0.00 -- 36.3 9.0
10/16/2019 02:00 457.13 0.00 -- 37.4 9.0
10/16/2019 01:00 457.14 0.00 -- 38.8 9.5
10/16/2019 00:00 457.14 0.00 0.01 39.4 9.8
10/15/2019 23:00 457.14 0.00 -- 39.8 9.8
10/15/2019 22:00 457.14 0.00 -- 41.9 10.0
10/15/2019 21:00 457.14 0.00 -- 44.9 10.0
10/15/2019 20:00 457.14 0.00 -- 47.4 10.0
10/15/2019 19:00 457.14 0.00 -- 56.1 10.0
10/15/2019 18:00 457.15 0.00 -- 61.7 10.0
10/15/2019 17:00 457.14 0.00 -- 59.9 10.0
10/15/2019 16:00 457.14 0.00 -- 62.3 10.0
10/15/2019 15:00 457.14 0.00 -- 59.6 10.0
10/15/2019 14:00 457.14 0.00 -- 59.8 10.0
10/15/2019 13:00 457.15 0.00 -- 57.3 10.3
10/15/2019 12:00 457.15 0.00 -- 55.7 9.8
10/15/2019 11:00 457.14 0.00 -- 52.8 9.8
10/15/2019 10:00 457.14 0.00 -- 49.2 10.0
10/15/2019 09:00 457.14 0.00 -- 40.4 10.0
10/15/2019 08:00 457.14 0.00 -- 41.1 10.0
10/15/2019 07:00 457.14 0.00 -- 45.1 10.3
10/15/2019 06:00 457.15 0.00 -- 46.7 10.3
10/15/2019 05:00 457.15 0.00 -- 43.5 10.0
10/15/2019 04:00 457.15 0.00 -- 45.2 10.0
10/15/2019 03:00 457.15 0.00 -- 47.5 10.0
10/15/2019 02:00 457.15 0.00 -- 49.9 10.0
10/15/2019 01:00 457.15 0.00 -- 51.1 10.0
10/15/2019 00:00 457.15 0.00 0.00 52.2 10.0
10/14/2019 23:00 457.15 0.00 -- 52.5 10.0
10/14/2019 22:00 457.15 0.00 -- 52.8 10.0
10/14/2019 21:00 457.15 0.00 -- 53.3 10.8
10/14/2019 20:00 457.15 0.00 -- 53.9 10.3
10/14/2019 19:00 457.15 0.00 -- 57.9 11.0
10/14/2019 18:00 457.15 0.00 -- 66.9 11.0
10/14/2019 17:00 457.15 0.00 -- 65.7 10.3
10/14/2019 16:00 457.15 0.00 -- 63.5 10.0
10/14/2019 15:00 457.15 0.00 -- 64.3 10.3
10/14/2019 14:00 457.15 0.00 -- 57.1 10.0
10/14/2019 13:00 457.15 0.00 -- 49.7 10.0
10/14/2019 12:00 457.15 0.00 -- 46.0 10.0
10/14/2019 11:00 457.15 0.00 -- 43.5 10.0
10/14/2019 10:00 457.15 0.00 -- 41.5 10.0
10/14/2019 09:00 457.15 0.00 -- 36.4 10.0
10/14/2019 08:00 457.15 0.00 -- 36.1 10.0
10/14/2019 07:00 457.15 0.00 -- 36.5 10.5
10/14/2019 06:00 457.15 0.00 -- 37.2 11.0
10/14/2019 05:00 457.15 0.00 -- 38.1 11.0
10/14/2019 04:00 457.16 0.00 -- 40.7 11.0
10/14/2019 03:00 457.16 0.00 -- 41.3 11.0
10/14/2019 02:00 457.16 0.00 -- 43.9 11.0
10/14/2019 01:00 457.16 0.00 -- 45.5 11.0
10/14/2019 00:00 457.16 0.00 0.00 47.0 11.0
10/13/2019 23:00 457.16 0.00 -- 47.4 11.5
10/13/2019 22:00 457.16 0.00 -- 49.8 11.3
10/13/2019 21:00 457.16 0.00 -- 51.4 11.8
10/13/2019 20:00 457.17 0.00 -- 56.2 12.0
10/13/2019 19:00 457.17 0.00 -- 61.8 12.0
10/13/2019 18:00 457.17 0.00 -- 66.3 12.0
10/13/2019 17:00 457.17 0.00 -- 69.6 12.0
10/13/2019 16:00 457.17 0.00 -- 66.7 11.8
10/13/2019 15:00 457.17 0.00 -- 65.7 11.5
10/13/2019 14:00 457.16 0.00 -- 62.6 11.0
10/13/2019 13:00 457.16 0.00 -- 62.5 11.0
10/13/2019 12:00 457.16 0.00 -- 60.1 11.0
10/13/2019 11:00 457.16 0.00 -- 57.0 11.0
10/13/2019 10:00 457.16 0.00 -- 51.0 11.0
10/13/2019 09:00 457.16 0.00 -- 47.6 11.0
10/13/2019 08:00 457.16 0.00 -- 47.3 11.0
10/13/2019 07:00 457.16 0.00 -- 49.0 11.0
10/13/2019 06:00 457.16 0.00 -- 50.8 11.0
10/13/2019 05:00 457.16 0.00 -- 51.6 11.0
10/13/2019 04:00 457.16 0.00 -- 52.3 11.3
10/13/2019 03:00 457.17 0.00 -- 53.4 12.0
10/13/2019 02:00 457.17 0.00 -- 54.0 12.0
10/13/2019 01:00 457.17 0.00 -- 54.0 12.0
10/13/2019 00:00 457.17 0.00 0.00 54.3 12.0
10/12/2019 23:00 457.17 0.00 -- 54.3 12.0
10/12/2019 22:00 457.17 0.00 -- 54.7 12.0
10/12/2019 21:00 457.17 0.00 -- 55.3 12.0
10/12/2019 20:00 457.17 0.00 -- 55.5 12.0
10/12/2019 19:00 457.17 0.00 -- 56.9 12.0
10/12/2019 18:00 457.17 0.00 -- 57.6 12.0
10/12/2019 17:00 457.17 0.00 -- 57.2 12.0
10/12/2019 16:00 457.17 0.00 -- 58.9 12.0
10/12/2019 15:00 457.17 0.00 -- 58.0 12.0
10/12/2019 14:00 457.17 0.00 -- 56.5 12.0
10/12/2019 13:00 457.17 0.00 -- 55.0 12.0
10/12/2019 12:00 457.17 0.00 -- 54.6 12.0
10/12/2019 11:00 457.17 0.00 -- 52.5 12.0
10/12/2019 10:00 457.17 0.00 -- 52.3 12.0
10/12/2019 09:00 457.17 0.00 -- 51.1 12.0
10/12/2019 08:00 457.17 0.00 -- 50.7 12.0
10/12/2019 07:00 457.17 0.00 -- 51.1 12.0
10/12/2019 06:00 457.17 0.00 -- 52.0 12.0
10/12/2019 05:00 457.17 0.00 -- 52.3 12.0
10/12/2019 04:00 457.17 0.00 -- 52.8 12.0
10/12/2019 03:00 457.17 0.00 -- 53.3 12.0
10/12/2019 02:00 457.17 0.00 -- 54.1 12.0
10/12/2019 01:00 457.17 0.00 -- 55.2 12.0
10/12/2019 00:00 457.17 0.00 0.00 56.6 12.0
10/11/2019 23:00 457.17 0.00 -- 57.5 12.0
10/11/2019 22:00 457.17 0.00 -- 58.3 12.0
10/11/2019 21:00 457.18 0.00 -- 58.9 12.8
10/11/2019 20:00 457.18 0.00 -- 58.3 13.0
10/11/2019 19:00 457.18 0.00 -- 60.3 12.8
10/11/2019 18:00 457.18 0.00 -- 60.2 12.8
10/11/2019 17:00 457.18 0.00 -- 62.3 12.8
10/11/2019 16:00 457.17 0.00 -- 62.0 12.5
10/11/2019 15:00 457.18 0.00 -- 63.5 12.8
10/11/2019 14:00 457.17 0.00 -- 62.1 12.3
10/11/2019 13:00 457.18 0.00 -- 61.8 12.5
10/11/2019 12:00 457.18 0.00 -- 56.5 12.8
10/11/2019 11:00 457.18 0.00 -- 52.5 12.8
10/11/2019 10:00 457.18 0.00 -- 49.5 13.0
10/11/2019 09:00 457.19 0.00 -- 40.9 13.0
10/11/2019 08:00 457.19 0.00 -- 41.2 13.0
10/11/2019 07:00 457.19 0.00 -- 40.9 13.0
10/11/2019 06:00 457.19 0.00 -- 39.1 13.0
10/11/2019 05:00 457.19 0.00 -- 39.6 13.0
10/11/2019 04:00 457.19 0.00 -- 41.2 13.5
10/11/2019 03:00 457.19 0.00 -- 44.7 13.8
10/11/2019 02:00 457.19 0.00 -- 44.1 14.0
10/11/2019 01:00 457.19 0.00 -- 42.3 14.0
10/11/2019 00:00 457.19 0.00 0.00 42.5 14.0
10/10/2019 23:00 457.20 0.00 -- 43.0 14.0
10/10/2019 22:00 457.20 0.00 -- 45.2 14.0
10/10/2019 21:00 457.20 0.00 -- 47.3 14.0
10/10/2019 20:00 457.20 0.00 -- 51.6 14.5
10/10/2019 19:00 457.21 0.00 -- 55.9 15.0
10/10/2019 18:00 457.21 0.00 -- 59.2 15.0
10/10/2019 17:00 457.20 0.00 -- 61.3 15.0
10/10/2019 16:00 457.20 0.00 -- 60.2 14.0
10/10/2019 15:00 457.20 0.00 -- 58.5 14.8
10/10/2019 14:00 457.20 0.00 -- 57.7 14.5
10/10/2019 13:00 457.21 0.00 -- 56.8 14.5
10/10/2019 12:00 457.20 0.00 -- 56.0 15.0
10/10/2019 11:00 457.21 0.00 -- 50.5 15.0
10/10/2019 10:00 -- -- -- 42.3 15.0
10/10/2019 09:00 -- -- -- 40.0 15.0
10/10/2019 08:00 -- -- -- 39.8 15.0
10/10/2019 07:00 -- -- -- 43.3 15.0
10/10/2019 06:00 -- -- -- 44.7 15.0
10/10/2019 05:00 -- -- -- 42.7 15.0
10/10/2019 04:00 -- -- -- 44.1 15.3
10/10/2019 03:00 -- -- -- 45.6 15.5
10/10/2019 02:00 -- -- -- 45.4 16.0
10/10/2019 01:00 -- -- -- 47.3 16.0
10/10/2019 00:00 -- -- 0.00 50.2 16.0